Time,TemperatureF,DewpointF,PressureIn,WindDirection,WindDirectionDegrees,WindSpeedMPH,WindSpeedGustMPH,Humidity,HourlyPrecipIn,Conditions,Clouds,dailyrainin,SoftwareType,DateUTC
2013-05-31 00:01:00,69.0,67.2,29.92,SSE,161,0.0,0.0,94,0.00,,,0.00,WUHU216DAVISVP2,2013-05-31 04:01:00,
2013-05-31 00:02:00,69.1,67.3,29.92,SSE,161,0.0,0.0,94,0.00,,,0.00,WUHU216DAVISVP2,2013-05-31 04:02:00,
2013-05-31 00:05:00,69.0,67.2,29.91,SSE,161,0.0,0.0,94,0.00,,,0.00,WUHU216DAVISVP2,2013-05-31 04:05:00,
2013-05-31 00:06:00,68.9,67.1,29.91,SSE,161,0.0,0.0,94,0.00,,,0.00,WUHU216DAVISVP2,2013-05-31 04:06:00,
2013-05-31 00:08:00,68.9,67.1,29.91,SSE,161,0.0,0.0,94,0.00,,,0.00,WUHU216DAVISVP2,2013-05-31 04:08:00,
2013-05-31 00:11:00,68.9,67.1,29.91,SSE,161,0.0,0.0,94,0.00,,,0.00,WUHU216DAVISVP2,2013-05-31 04:11:00,
2013-05-31 00:12:00,68.9,67.1,29.91,SSE,161,0.0,0.0,94,0.00,,,0.00,WUHU216DAVISVP2,2013-05-31 04:12:00,
2013-05-31 00:15:00,68.9,67.1,29.91,SSE,161,0.0,0.0,94,0.00,,,0.00,WUHU216DAVISVP2,2013-05-31 04:15:00,
2013-05-31 00:16:00,68.8,67.0,29.92,SSE,161,0.0,0.0,94,0.00,,,0.00,WUHU216DAVISVP2,2013-05-31 04:16:00,
2013-05-31 00:18:00,68.8,67.0,29.91,SSE,161,0.0,0.0,94,0.00,,,0.00,WUHU216DAVISVP2,2013-05-31 04:18:00,
2013-05-31 00:20:00,68.8,67.0,29.92,SSE,161,0.0,0.0,94,0.00,,,0.00,WUHU216DAVISVP2,2013-05-31 04:20:00,
2013-05-31 00:21:00,68.8,67.0,29.92,SSE,161,0.0,0.0,94,0.00,,,0.00,WUHU216DAVISVP2,2013-05-31 04:21:00,
2013-05-31 00:22:00,68.7,66.9,29.92,SSE,161,0.0,0.0,94,0.00,,,0.00,WUHU216DAVISVP2,2013-05-31 04:22:00,
2013-05-31 00:26:00,68.6,66.8,29.92,SSE,161,0.0,0.0,94,0.00,,,0.00,WUHU216DAVISVP2,2013-05-31 04:26:00,
2013-05-31 00:27:00,68.6,66.8,29.92,SSE,161,0.0,0.0,94,0.00,,,0.00,WUHU216DAVISVP2,2013-05-31 04:27:00,
2013-05-31 00:29:00,68.6,66.8,29.92,SSE,161,0.0,0.0,94,0.00,,,0.00,WUHU216DAVISVP2,2013-05-31 04:29:00,
2013-05-31 00:31:00,68.6,66.8,29.92,SSE,161,0.0,0.0,94,0.00,,,0.00,WUHU216DAVISVP2,2013-05-31 04:31:00,
2013-05-31 00:32:00,68.6,66.8,29.92,SSE,161,0.0,0.0,94,0.00,,,0.00,WUHU216DAVISVP2,2013-05-31 04:32:00,
2013-05-31 00:33:00,68.6,66.8,29.92,SSE,161,0.0,0.0,94,0.00,,,0.00,WUHU216DAVISVP2,2013-05-31 04:33:00,
2013-05-31 00:34:00,68.6,66.8,29.92,SSE,161,0.0,0.0,94,0.00,,,0.00,WUHU216DAVISVP2,2013-05-31 04:34:00,
2013-05-31 00:36:00,68.6,66.8,29.92,SSE,161,0.0,0.0,94,0.00,,,0.00,WUHU216DAVISVP2,2013-05-31 04:36:00,
2013-05-31 00:37:00,68.6,66.8,29.92,SSE,161,0.0,0.0,94,0.00,,,0.00,WUHU216DAVISVP2,2013-05-31 04:37:00,
2013-05-31 00:38:00,68.6,66.8,29.91,SSE,161,0.0,0.0,94,0.00,,,0.00,WUHU216DAVISVP2,2013-05-31 04:38:00,
2013-05-31 00:40:00,68.6,66.8,29.91,SSE,161,0.0,0.0,94,0.00,,,0.00,WUHU216DAVISVP2,2013-05-31 04:40:00,
2013-05-31 00:42:00,68.7,66.9,29.92,SSE,161,0.0,0.0,94,0.00,,,0.00,WUHU216DAVISVP2,2013-05-31 04:42:00,
2013-05-31 00:44:00,68.8,67.0,29.91,SSE,161,0.0,0.0,94,0.00,,,0.00,WUHU216DAVISVP2,2013-05-31 04:44:00,
2013-05-31 00:46:00,68.8,67.0,29.91,SSE,161,0.0,0.0,94,0.00,,,0.00,WUHU216DAVISVP2,2013-05-31 04:46:00,
2013-05-31 00:47:00,68.8,67.0,29.91,SSE,161,0.0,0.0,94,0.00,,,0.00,WUHU216DAVISVP2,2013-05-31 04:47:00,
2013-05-31 00:48:00,68.8,67.0,29.91,SSE,161,0.0,0.0,94,0.00,,,0.00,WUHU216DAVISVP2,2013-05-31 04:48:00,
2013-05-31 00:49:00,68.9,67.1,29.91,SSE,161,0.0,0.0,94,0.00,,,0.00,WUHU216DAVISVP2,2013-05-31 04:49:00,
2013-05-31 00:51:00,68.9,67.1,29.91,SSE,161,0.0,0.0,94,0.00,,,0.00,WUHU216DAVISVP2,2013-05-31 04:51:00,
2013-05-31 00:53:00,68.9,67.1,29.91,SSE,161,0.0,0.0,94,0.00,,,0.00,WUHU216DAVISVP2,2013-05-31 04:53:00,
2013-05-31 00:55:00,69.0,67.2,29.91,SSE,161,0.0,0.0,94,0.00,,,0.00,WUHU216DAVISVP2,2013-05-31 04:55:00,
2013-05-31 00:57:00,69.0,67.2,29.91,SSE,161,0.0,0.0,94,0.00,,,0.00,WUHU216DAVISVP2,2013-05-31 04:57:00,
2013-05-31 00:58:00,69.0,67.2,29.91,SSE,161,0.0,0.0,94,0.00,,,0.00,WUHU216DAVISVP2,2013-05-31 04:58:00,
2013-05-31 01:00:00,69.1,67.3,29.91,SSE,161,0.0,1.0,94,0.00,,,0.00,WUHU216DAVISVP2,2013-05-31 05:00:00,
2013-05-31 01:02:00,69.2,67.4,29.91,SSE,161,0.0,1.0,94,0.00,,,0.00,WUHU216DAVISVP2,2013-05-31 05:02:00,
2013-05-31 01:04:00,69.2,67.4,29.91,SSE,161,0.0,1.0,94,0.00,,,0.00,WUHU216DAVISVP2,2013-05-31 05:04:00,
2013-05-31 01:05:00,69.3,67.2,29.91,SSE,161,0.0,1.0,93,0.00,,,0.00,WUHU216DAVISVP2,2013-05-31 05:05:00,
2013-05-31 01:07:00,69.3,67.2,29.91,SSE,161,0.0,1.0,93,0.00,,,0.00,WUHU216DAVISVP2,2013-05-31 05:07:00,
2013-05-31 01:08:00,69.3,67.2,29.91,SSE,161,0.0,1.0,93,0.00,,,0.00,WUHU216DAVISVP2,2013-05-31 05:08:00,
2013-05-31 01:11:00,69.5,67.4,29.91,SSE,159,0.0,2.0,93,0.00,,,0.00,WUHU216DAVISVP2,2013-05-31 05:11:00,
2013-05-31 01:13:00,69.5,67.4,29.91,SSE,159,0.0,2.0,93,0.00,,,0.00,WUHU216DAVISVP2,2013-05-31 05:13:00,
2013-05-31 01:15:00,69.6,67.2,29.90,SSE,159,0.0,2.0,92,0.00,,,0.00,WUHU216DAVISVP2,2013-05-31 05:15:00,
2013-05-31 01:17:00,69.6,67.2,29.90,SSE,159,0.0,2.0,92,0.00,,,0.00,WUHU216DAVISVP2,2013-05-31 05:17:00,
2013-05-31 01:18:00,69.7,67.3,29.90,SSE,159,0.0,1.0,92,0.00,,,0.00,WUHU216DAVISVP2,2013-05-31 05:18:00,
2013-05-31 01:21:00,69.8,67.1,29.91,SSE,159,0.0,1.0,91,0.00,,,0.00,WUHU216DAVISVP2,2013-05-31 05:21:00,
2013-05-31 01:22:00,69.8,67.1,29.90,SSE,159,0.0,1.0,91,0.00,,,0.00,WUHU216DAVISVP2,2013-05-31 05:22:00,
2013-05-31 01:24:00,69.8,67.1,29.90,SSE,159,0.0,1.0,91,0.00,,,0.00,WUHU216DAVISVP2,2013-05-31 05:24:00,
2013-05-31 01:27:00,69.9,67.2,29.90,SSE,159,0.0,1.0,91,0.00,,,0.00,WUHU216DAVISVP2,2013-05-31 05:27:00,
2013-05-31 01:29:00,69.9,67.2,29.90,SSE,159,0.0,1.0,91,0.00,,,0.00,WUHU216DAVISVP2,2013-05-31 05:29:00,
2013-05-31 01:30:00,69.9,66.8,29.90,SSE,159,0.0,1.0,90,0.00,,,0.00,WUHU216DAVISVP2,2013-05-31 05:30:00,
2013-05-31 01:32:00,69.9,66.8,29.90,South,169,0.0,3.0,90,0.00,,,0.00,WUHU216DAVISVP2,2013-05-31 05:32:00,
2013-05-31 01:34:00,70.0,66.9,29.90,South,169,0.0,3.0,90,0.00,,,0.00,WUHU216DAVISVP2,2013-05-31 05:34:00,
2013-05-31 01:39:00,70.1,66.7,29.90,South,169,0.0,3.0,89,0.00,,,0.00,WUHU216DAVISVP2,2013-05-31 05:39:00,
2013-05-31 01:42:00,70.2,66.8,29.90,South,169,0.0,2.0,89,0.00,,,0.00,WUHU216DAVISVP2,2013-05-31 05:42:00,
2013-05-31 01:45:00,70.2,66.8,29.90,South,180,0.0,2.0,89,0.00,,,0.00,WUHU216DAVISVP2,2013-05-31 05:45:00,
2013-05-31 01:47:00,70.3,66.6,29.90,South,180,0.0,1.0,88,0.00,,,0.00,WUHU216DAVISVP2,2013-05-31 05:47:00,
2013-05-31 01:49:00,70.4,66.7,29.90,South,180,0.0,1.0,88,0.00,,,0.00,WUHU216DAVISVP2,2013-05-31 05:49:00,
2013-05-31 01:50:00,70.4,66.7,29.90,South,180,0.0,1.0,88,0.00,,,0.00,WUHU216DAVISVP2,2013-05-31 05:50:00,
2013-05-31 01:52:00,70.4,66.7,29.90,South,180,0.0,1.0,88,0.00,,,0.00,WUHU216DAVISVP2,2013-05-31 05:52:00,
2013-05-31 01:53:00,70.4,66.7,29.90,South,180,0.0,1.0,88,0.00,,,0.00,WUHU216DAVISVP2,2013-05-31 05:53:00,
2013-05-31 01:55:00,70.3,66.6,29.90,SSE,164,0.0,5.0,88,0.00,,,0.00,WUHU216DAVISVP2,2013-05-31 05:55:00,
2013-05-31 01:56:00,70.3,66.6,29.90,SSE,164,0.0,5.0,88,0.00,,,0.00,WUHU216DAVISVP2,2013-05-31 05:56:00,
2013-05-31 01:59:00,70.3,66.6,29.90,SSE,164,0.0,5.0,88,0.00,,,0.00,WUHU216DAVISVP2,2013-05-31 05:59:00,
2013-05-31 02:00:00,70.3,66.6,29.90,SSE,164,0.0,5.0,88,0.00,,,0.00,WUHU216DAVISVP2,2013-05-31 06:00:00,
2013-05-31 02:01:00,70.3,66.6,29.90,SSE,164,0.0,5.0,88,0.00,,,0.00,WUHU216DAVISVP2,2013-05-31 06:01:00,
2013-05-31 02:03:00,70.3,66.6,29.90,SSE,164,0.0,5.0,88,0.00,,,0.00,WUHU216DAVISVP2,2013-05-31 06:03:00,
2013-05-31 02:05:00,70.2,66.2,29.90,SSE,164,0.0,1.0,87,0.00,,,0.00,WUHU216DAVISVP2,2013-05-31 06:05:00,
2013-05-31 02:06:00,70.2,66.2,29.90,SSE,164,0.0,1.0,87,0.00,,,0.00,WUHU216DAVISVP2,2013-05-31 06:06:00,
2013-05-31 02:07:00,70.2,66.2,29.90,SSE,164,0.0,1.0,87,0.00,,,0.00,WUHU216DAVISVP2,2013-05-31 06:07:00,
2013-05-31 02:09:00,70.2,66.2,29.90,SSE,164,0.0,1.0,87,0.00,,,0.00,WUHU216DAVISVP2,2013-05-31 06:09:00,
2013-05-31 02:11:00,70.2,66.2,29.90,SSE,164,0.0,1.0,87,0.00,,,0.00,WUHU216DAVISVP2,2013-05-31 06:11:00,
2013-05-31 02:12:00,70.2,66.2,29.90,SSE,164,0.0,1.0,87,0.00,,,0.00,WUHU216DAVISVP2,2013-05-31 06:12:00,
2013-05-31 02:16:00,70.1,66.1,29.90,SSE,164,0.0,1.0,87,0.00,,,0.00,WUHU216DAVISVP2,2013-05-31 06:16:00,
2013-05-31 02:17:00,70.1,66.1,29.90,SSE,164,0.0,1.0,87,0.00,,,0.00,WUHU216DAVISVP2,2013-05-31 06:17:00,
2013-05-31 02:19:00,70.1,66.1,29.90,SSE,166,0.0,1.0,87,0.00,,,0.00,WUHU216DAVISVP2,2013-05-31 06:19:00,
2013-05-31 02:20:00,70.1,66.1,29.90,SSE,166,0.0,1.0,87,0.00,,,0.00,WUHU216DAVISVP2,2013-05-31 06:20:00,
2013-05-31 02:21:00,70.1,66.1,29.90,SSE,166,0.0,1.0,87,0.00,,,0.00,WUHU216DAVISVP2,2013-05-31 06:21:00,
2013-05-31 02:22:00,70.1,66.1,29.90,SSE,166,0.0,1.0,87,0.00,,,0.00,WUHU216DAVISVP2,2013-05-31 06:22:00,
2013-05-31 02:24:00,70.1,66.1,29.90,SSE,166,0.0,1.0,87,0.00,,,0.00,WUHU216DAVISVP2,2013-05-31 06:24:00,
2013-05-31 02:25:00,70.1,66.1,29.90,SSE,166,0.0,1.0,87,0.00,,,0.00,WUHU216DAVISVP2,2013-05-31 06:25:00,
2013-05-31 02:26:00,70.1,66.1,29.90,SSE,166,0.0,1.0,87,0.00,,,0.00,WUHU216DAVISVP2,2013-05-31 06:26:00,
2013-05-31 02:31:00,70.1,66.1,29.90,South,169,0.0,1.0,87,0.00,,,0.00,WUHU216DAVISVP2,2013-05-31 06:31:00,
2013-05-31 02:33:00,70.1,66.1,29.90,South,169,0.0,1.0,87,0.00,,,0.00,WUHU216DAVISVP2,2013-05-31 06:33:00,
2013-05-31 02:34:00,70.1,66.1,29.90,South,169,0.0,1.0,87,0.00,,,0.00,WUHU216DAVISVP2,2013-05-31 06:34:00,
2013-05-31 02:36:00,70.0,66.0,29.90,South,169,0.0,1.0,87,0.00,,,0.00,WUHU216DAVISVP2,2013-05-31 06:36:00,
2013-05-31 02:37:00,70.0,66.0,29.90,South,169,0.0,1.0,87,0.00,,,0.00,WUHU216DAVISVP2,2013-05-31 06:37:00,
2013-05-31 02:39:00,70.0,66.0,29.90,South,169,0.0,2.0,87,0.00,,,0.00,WUHU216DAVISVP2,2013-05-31 06:39:00,
2013-05-31 02:41:00,70.0,66.0,29.90,SSE,150,1.0,2.0,87,0.00,,,0.00,WUHU216DAVISVP2,2013-05-31 06:41:00,
2013-05-31 02:42:00,70.0,66.0,29.90,SSE,150,1.0,2.0,87,0.00,,,0.00,WUHU216DAVISVP2,2013-05-31 06:42:00,
2013-05-31 02:44:00,70.0,65.6,29.90,SSE,151,0.0,3.0,86,0.00,,,0.00,WUHU216DAVISVP2,2013-05-31 06:44:00,
2013-05-31 02:45:00,70.0,65.6,29.90,SSE,151,0.0,3.0,86,0.00,,,0.00,WUHU216DAVISVP2,2013-05-31 06:45:00,
2013-05-31 02:47:00,70.0,65.6,29.90,SSE,151,0.0,3.0,86,0.00,,,0.00,WUHU216DAVISVP2,2013-05-31 06:47:00,
2013-05-31 02:48:00,70.0,65.6,29.90,SSE,151,0.0,3.0,86,0.00,,,0.00,WUHU216DAVISVP2,2013-05-31 06:48:00,
2013-05-31 02:49:00,70.0,65.6,29.90,SSE,151,0.0,3.0,86,0.00,,,0.00,WUHU216DAVISVP2,2013-05-31 06:49:00,
2013-05-31 02:52:00,70.0,65.6,29.90,SW,230,2.0,3.0,86,0.00,,,0.00,WUHU216DAVISVP2,2013-05-31 06:52:00,
2013-05-31 02:54:00,70.0,65.6,29.90,SSW,209,0.0,3.0,86,0.00,,,0.00,WUHU216DAVISVP2,2013-05-31 06:54:00,
2013-05-31 02:56:00,70.1,65.7,29.90,SSW,209,0.0,3.0,86,0.00,,,0.00,WUHU216DAVISVP2,2013-05-31 06:56:00,
2013-05-31 02:57:00,70.1,65.7,29.90,SSW,200,1.0,3.0,86,0.00,,,0.00,WUHU216DAVISVP2,2013-05-31 06:57:00,
2013-05-31 02:58:00,70.1,65.7,29.90,SSW,200,0.0,3.0,86,0.00,,,0.00,WUHU216DAVISVP2,2013-05-31 06:58:00,
2013-05-31 03:01:00,70.1,65.7,29.89,SSW,203,0.0,3.0,86,0.00,,,0.00,WUHU216DAVISVP2,2013-05-31 07:01:00,
2013-05-31 03:03:00,70.1,65.7,29.89,SSW,203,0.0,3.0,86,0.00,,,0.00,WUHU216DAVISVP2,2013-05-31 07:03:00,
2013-05-31 03:05:00,70.1,65.7,29.89,SSE,149,0.0,2.0,86,0.00,,,0.00,WUHU216DAVISVP2,2013-05-31 07:05:00,
2013-05-31 03:06:00,70.0,65.6,29.89,SSE,149,0.0,2.0,86,0.00,,,0.00,WUHU216DAVISVP2,2013-05-31 07:06:00,
2013-05-31 03:08:00,70.0,65.6,29.89,SSE,149,0.0,2.0,86,0.00,,,0.00,WUHU216DAVISVP2,2013-05-31 07:08:00,
2013-05-31 03:10:00,70.0,65.6,29.89,SSE,149,0.0,2.0,86,0.00,,,0.00,WUHU216DAVISVP2,2013-05-31 07:10:00,
2013-05-31 03:11:00,70.0,65.6,29.89,SE,140,0.0,1.0,86,0.00,,,0.00,WUHU216DAVISVP2,2013-05-31 07:11:00,
2013-05-31 03:13:00,70.0,65.6,29.88,South,184,0.0,1.0,86,0.00,,,0.00,WUHU216DAVISVP2,2013-05-31 07:13:00,
2013-05-31 03:16:00,70.0,65.6,29.89,South,184,0.0,1.0,86,0.00,,,0.00,WUHU216DAVISVP2,2013-05-31 07:16:00,
2013-05-31 03:17:00,70.0,65.6,29.89,ESE,111,5.0,5.0,86,0.00,,,0.00,WUHU216DAVISVP2,2013-05-31 07:17:00,
2013-05-31 03:18:00,70.0,65.6,29.89,ESE,111,5.0,5.0,86,0.00,,,0.00,WUHU216DAVISVP2,2013-05-31 07:18:00,
2013-05-31 03:20:00,70.0,65.6,29.89,WSW,238,1.0,5.0,86,0.00,,,0.00,WUHU216DAVISVP2,2013-05-31 07:20:00,
2013-05-31 03:23:00,70.0,65.6,29.89,SSW,203,0.0,5.0,86,0.00,,,0.00,WUHU216DAVISVP2,2013-05-31 07:23:00,
2013-05-31 03:25:00,70.1,65.7,29.88,SSW,201,0.0,5.0,86,0.00,,,0.00,WUHU216DAVISVP2,2013-05-31 07:25:00,
2013-05-31 03:27:00,70.1,65.7,29.89,SSW,195,0.0,3.0,86,0.00,,,0.00,WUHU216DAVISVP2,2013-05-31 07:27:00,
2013-05-31 03:28:00,70.1,65.7,29.89,SSW,195,0.0,3.0,86,0.00,,,0.00,WUHU216DAVISVP2,2013-05-31 07:28:00,
2013-05-31 03:30:00,70.1,65.7,29.88,WSW,257,1.0,6.0,86,0.00,,,0.00,WUHU216DAVISVP2,2013-05-31 07:30:00,
2013-05-31 03:32:00,70.2,65.8,29.88,SSW,196,0.0,6.0,86,0.00,,,0.00,WUHU216DAVISVP2,2013-05-31 07:32:00,
2013-05-31 03:33:00,70.2,65.8,29.88,SSW,196,0.0,6.0,86,0.00,,,0.00,WUHU216DAVISVP2,2013-05-31 07:33:00,
2013-05-31 03:34:00,70.2,65.8,29.88,SSW,196,1.0,6.0,86,0.00,,,0.00,WUHU216DAVISVP2,2013-05-31 07:34:00,
2013-05-31 03:36:00,70.3,65.6,29.88,SSW,192,0.0,6.0,85,0.00,,,0.00,WUHU216DAVISVP2,2013-05-31 07:36:00,
2013-05-31 03:38:00,70.3,65.6,29.88,SSW,196,0.0,6.0,85,0.00,,,0.00,WUHU216DAVISVP2,2013-05-31 07:38:00,
2013-05-31 03:39:00,70.3,65.6,29.88,SSW,196,0.0,6.0,85,0.00,,,0.00,WUHU216DAVISVP2,2013-05-31 07:39:00,
2013-05-31 03:41:00,70.4,65.7,29.88,WSW,244,1.0,5.0,85,0.00,,,0.00,WUHU216DAVISVP2,2013-05-31 07:41:00,
2013-05-31 03:42:00,70.4,65.7,29.88,SW,236,0.0,5.0,85,0.00,,,0.00,WUHU216DAVISVP2,2013-05-31 07:42:00,
2013-05-31 03:44:00,70.4,65.7,29.88,SW,236,0.0,5.0,85,0.00,,,0.00,WUHU216DAVISVP2,2013-05-31 07:44:00,
2013-05-31 03:46:00,70.4,65.7,29.88,SW,214,0.0,3.0,85,0.00,,,0.00,WUHU216DAVISVP2,2013-05-31 07:46:00,
2013-05-31 03:48:00,70.4,65.7,29.88,South,189,0.0,3.0,85,0.00,,,0.00,WUHU216DAVISVP2,2013-05-31 07:48:00,
2013-05-31 03:49:00,70.4,65.7,29.88,South,189,0.0,3.0,85,0.00,,,0.00,WUHU216DAVISVP2,2013-05-31 07:49:00,
2013-05-31 03:51:00,70.5,65.5,29.88,WSW,246,0.0,3.0,84,0.00,,,0.00,WUHU216DAVISVP2,2013-05-31 07:51:00,
2013-05-31 03:53:00,70.6,65.6,29.88,West,263,0.0,3.0,84,0.00,,,0.00,WUHU216DAVISVP2,2013-05-31 07:53:00,
2013-05-31 03:54:00,70.6,65.6,29.88,West,263,0.0,3.0,84,0.00,,,0.00,WUHU216DAVISVP2,2013-05-31 07:54:00,
2013-05-31 03:56:00,70.6,65.6,29.88,South,169,0.0,3.0,84,0.00,,,0.00,WUHU216DAVISVP2,2013-05-31 07:56:00,
2013-05-31 03:59:00,70.6,65.6,29.88,SSW,203,0.0,3.0,84,0.00,,,0.00,WUHU216DAVISVP2,2013-05-31 07:59:00,
2013-05-31 04:01:00,70.6,65.6,29.88,SSW,209,0.0,3.0,84,0.00,,,0.00,WUHU216DAVISVP2,2013-05-31 08:01:00,
2013-05-31 04:02:00,70.6,65.6,29.88,SSW,203,0.0,2.0,84,0.00,,,0.00,WUHU216DAVISVP2,2013-05-31 08:02:00,
2013-05-31 04:04:00,70.6,65.6,29.88,SW,215,1.0,2.0,84,0.00,,,0.00,WUHU216DAVISVP2,2013-05-31 08:04:00,
2013-05-31 04:06:00,70.6,65.6,29.88,South,178,1.0,4.0,84,0.00,,,0.00,WUHU216DAVISVP2,2013-05-31 08:06:00,
2013-05-31 04:08:00,70.6,65.6,29.88,South,191,0.0,4.0,84,0.00,,,0.00,WUHU216DAVISVP2,2013-05-31 08:08:00,
2013-05-31 04:10:00,70.5,65.5,29.88,South,190,0.0,4.0,84,0.00,,,0.00,WUHU216DAVISVP2,2013-05-31 08:10:00,
2013-05-31 04:12:00,70.5,65.5,29.88,SSW,198,0.0,4.0,84,0.00,,,0.00,WUHU216DAVISVP2,2013-05-31 08:12:00,
2013-05-31 04:13:00,70.5,65.5,29.88,WSW,240,0.0,4.0,84,0.00,,,0.00,WUHU216DAVISVP2,2013-05-31 08:13:00,
2013-05-31 04:15:00,70.5,65.5,29.88,WSW,240,0.0,4.0,84,0.00,,,0.00,WUHU216DAVISVP2,2013-05-31 08:15:00,
2013-05-31 04:17:00,70.5,65.5,29.87,SSW,198,0.0,3.0,84,0.00,,,0.00,WUHU216DAVISVP2,2013-05-31 08:17:00,
2013-05-31 04:18:00,70.5,65.5,29.88,SSW,209,0.0,3.0,84,0.00,,,0.00,WUHU216DAVISVP2,2013-05-31 08:18:00,
2013-05-31 04:20:00,70.4,65.4,29.88,WSW,245,0.0,5.0,84,0.00,,,0.00,WUHU216DAVISVP2,2013-05-31 08:20:00,
2013-05-31 04:24:00,70.5,65.5,29.88,South,184,0.0,5.0,84,0.00,,,0.00,WUHU216DAVISVP2,2013-05-31 08:24:00,
2013-05-31 04:25:00,70.5,65.5,29.88,South,184,0.0,5.0,84,0.00,,,0.00,WUHU216DAVISVP2,2013-05-31 08:25:00,
2013-05-31 04:26:00,70.5,65.5,29.88,SSW,213,4.0,5.0,84,0.00,,,0.00,WUHU216DAVISVP2,2013-05-31 08:26:00,
2013-05-31 04:30:00,70.6,65.6,29.88,SW,229,0.0,5.0,84,0.00,,,0.00,WUHU216DAVISVP2,2013-05-31 08:30:00,
2013-05-31 04:31:00,70.6,65.6,29.88,SW,229,0.0,5.0,84,0.00,,,0.00,WUHU216DAVISVP2,2013-05-31 08:31:00,
2013-05-31 04:33:00,70.6,65.6,29.88,SSW,213,1.0,5.0,84,0.00,,,0.00,WUHU216DAVISVP2,2013-05-31 08:33:00,
2013-05-31 04:35:00,70.6,65.6,29.88,SW,216,2.0,5.0,84,0.00,,,0.00,WUHU216DAVISVP2,2013-05-31 08:35:00,
2013-05-31 04:36:00,70.6,65.6,29.88,SW,216,2.0,5.0,84,0.00,,,0.00,WUHU216DAVISVP2,2013-05-31 08:36:00,
2013-05-31 04:38:00,70.7,65.7,29.88,South,175,0.0,4.0,84,0.00,,,0.00,WUHU216DAVISVP2,2013-05-31 08:38:00,
2013-05-31 04:41:00,70.6,65.6,29.88,WSW,251,2.0,6.0,84,0.00,,,0.00,WUHU216DAVISVP2,2013-05-31 08:41:00,
2013-05-31 04:44:00,70.7,65.7,29.87,SSW,192,0.0,6.0,84,0.00,,,0.00,WUHU216DAVISVP2,2013-05-31 08:44:00,
2013-05-31 04:46:00,70.6,65.6,29.87,SW,232,0.0,6.0,84,0.00,,,0.00,WUHU216DAVISVP2,2013-05-31 08:46:00,
2013-05-31 04:48:00,70.7,65.7,29.88,WSW,256,0.0,6.0,84,0.00,,,0.00,WUHU216DAVISVP2,2013-05-31 08:48:00,
2013-05-31 04:50:00,70.6,65.6,29.87,WSW,240,0.0,6.0,84,0.00,,,0.00,WUHU216DAVISVP2,2013-05-31 08:50:00,
2013-05-31 04:51:00,70.7,65.7,29.87,WSW,237,0.0,6.0,84,0.00,,,0.00,WUHU216DAVISVP2,2013-05-31 08:51:00,
2013-05-31 04:55:00,70.6,65.6,29.87,SW,226,0.0,6.0,84,0.00,,,0.00,WUHU216DAVISVP2,2013-05-31 08:55:00,
2013-05-31 04:56:00,70.6,65.6,29.87,SW,226,0.0,6.0,84,0.00,,,0.00,WUHU216DAVISVP2,2013-05-31 08:56:00,
2013-05-31 04:57:00,70.6,65.6,29.87,SW,230,0.0,4.0,84,0.00,,,0.00,WUHU216DAVISVP2,2013-05-31 08:57:00,
2013-05-31 04:59:00,70.6,65.6,29.87,SSW,211,1.0,4.0,84,0.00,,,0.00,WUHU216DAVISVP2,2013-05-31 08:59:00,
2013-05-31 05:01:00,70.6,65.6,29.87,SSE,166,0.0,4.0,84,0.00,,,0.00,WUHU216DAVISVP2,2013-05-31 09:01:00,
2013-05-31 05:02:00,70.6,65.6,29.87,SSE,166,0.0,4.0,84,0.00,,,0.00,WUHU216DAVISVP2,2013-05-31 09:02:00,
2013-05-31 05:03:00,70.6,65.6,29.87,ESE,117,1.0,4.0,84,0.00,,,0.00,WUHU216DAVISVP2,2013-05-31 09:03:00,
2013-05-31 05:05:00,70.5,65.5,29.87,South,177,0.0,4.0,84,0.00,,,0.00,WUHU216DAVISVP2,2013-05-31 09:05:00,
2013-05-31 05:06:00,70.5,65.5,29.87,SSW,194,0.0,4.0,84,0.00,,,0.00,WUHU216DAVISVP2,2013-05-31 09:06:00,
2013-05-31 05:07:00,70.5,65.5,29.87,SSW,194,0.0,4.0,84,0.00,,,0.00,WUHU216DAVISVP2,2013-05-31 09:07:00,
2013-05-31 05:09:00,70.5,65.5,29.87,West,263,0.0,5.0,84,0.00,,,0.00,WUHU216DAVISVP2,2013-05-31 09:09:00,
2013-05-31 05:12:00,70.5,65.5,29.87,SSE,154,2.0,5.0,84,0.00,,,0.00,WUHU216DAVISVP2,2013-05-31 09:12:00,
2013-05-31 05:13:00,70.5,65.5,29.87,SSE,153,0.0,5.0,84,0.00,,,0.00,WUHU216DAVISVP2,2013-05-31 09:13:00,
2013-05-31 05:16:00,70.5,65.5,29.87,North,355,0.0,5.0,84,0.00,,,0.00,WUHU216DAVISVP2,2013-05-31 09:16:00,
2013-05-31 05:17:00,70.5,65.5,29.87,North,355,0.0,5.0,84,0.00,,,0.00,WUHU216DAVISVP2,2013-05-31 09:17:00,
2013-05-31 05:19:00,70.5,65.5,29.87,SSW,207,0.0,4.0,84,0.00,,,0.00,WUHU216DAVISVP2,2013-05-31 09:19:00,
2013-05-31 05:22:00,70.5,65.5,29.87,WSW,242,0.0,4.0,84,0.00,,,0.00,WUHU216DAVISVP2,2013-05-31 09:22:00,
2013-05-31 05:23:00,70.5,65.5,29.87,SSW,201,0.0,5.0,84,0.00,,,0.00,WUHU216DAVISVP2,2013-05-31 09:23:00,
2013-05-31 05:26:00,70.5,65.5,29.87,SSW,213,0.0,5.0,84,0.00,,,0.00,WUHU216DAVISVP2,2013-05-31 09:26:00,
2013-05-31 05:27:00,70.5,65.5,29.87,SSW,213,0.0,5.0,84,0.00,,,0.00,WUHU216DAVISVP2,2013-05-31 09:27:00,
2013-05-31 05:32:00,70.5,65.5,29.87,WSW,240,2.0,5.0,84,0.00,,,0.00,WUHU216DAVISVP2,2013-05-31 09:32:00,
2013-05-31 05:33:00,70.5,65.5,29.87,WSW,240,2.0,5.0,84,0.00,,,0.00,WUHU216DAVISVP2,2013-05-31 09:33:00,
2013-05-31 05:34:00,70.4,65.4,29.87,South,175,2.0,5.0,84,0.00,,,0.00,WUHU216DAVISVP2,2013-05-31 09:34:00,
2013-05-31 05:36:00,70.5,65.5,29.87,South,175,0.0,5.0,84,0.00,,,0.00,WUHU216DAVISVP2,2013-05-31 09:36:00,
2013-05-31 05:38:00,70.4,65.4,29.87,SSW,201,1.0,5.0,84,0.00,,,0.00,WUHU216DAVISVP2,2013-05-31 09:38:00,
2013-05-31 05:40:00,70.4,65.4,29.87,SE,126,1.0,7.0,84,0.00,,,0.00,WUHU216DAVISVP2,2013-05-31 09:40:00,
2013-05-31 05:43:00,70.5,65.5,29.87,SW,230,0.0,7.0,84,0.00,,,0.00,WUHU216DAVISVP2,2013-05-31 09:43:00,
2013-05-31 05:45:00,70.4,65.4,29.87,SW,223,2.0,7.0,84,0.00,,,0.00,WUHU216DAVISVP2,2013-05-31 09:45:00,
2013-05-31 05:47:00,70.4,65.4,29.87,SSW,199,0.0,7.0,84,0.00,,,0.00,WUHU216DAVISVP2,2013-05-31 09:47:00,
2013-05-31 05:48:00,70.4,65.4,29.87,SSW,199,0.0,7.0,84,0.00,,,0.00,WUHU216DAVISVP2,2013-05-31 09:48:00,
2013-05-31 05:49:00,70.4,65.4,29.87,SSW,202,1.0,7.0,84,0.00,,,0.00,WUHU216DAVISVP2,2013-05-31 09:49:00,
2013-05-31 05:50:00,70.3,65.3,29.87,SSW,213,0.0,5.0,84,0.00,,,0.00,WUHU216DAVISVP2,2013-05-31 09:50:00,
2013-05-31 05:52:00,70.3,65.3,29.87,SW,224,0.0,5.0,84,0.00,,,0.00,WUHU216DAVISVP2,2013-05-31 09:52:00,
2013-05-31 05:53:00,70.3,65.3,29.87,SW,224,0.0,5.0,84,0.00,,,0.00,WUHU216DAVISVP2,2013-05-31 09:53:00,
2013-05-31 05:55:00,70.3,65.3,29.87,SSW,206,0.0,4.0,84,0.00,,,0.00,WUHU216DAVISVP2,2013-05-31 09:55:00,
2013-05-31 05:57:00,70.2,65.2,29.87,SSE,148,0.0,4.0,84,0.00,,,0.00,WUHU216DAVISVP2,2013-05-31 09:57:00,
2013-05-31 05:58:00,70.2,65.2,29.87,SSE,148,0.0,4.0,84,0.00,,,0.00,WUHU216DAVISVP2,2013-05-31 09:58:00,
2013-05-31 05:59:00,70.2,65.2,29.87,SW,215,0.0,6.0,84,0.00,,,0.00,WUHU216DAVISVP2,2013-05-31 09:59:00,
2013-05-31 06:00:00,70.2,65.2,29.87,SSW,200,0.0,6.0,84,0.00,,,0.00,WUHU216DAVISVP2,2013-05-31 10:00:00,
2013-05-31 06:02:00,70.1,65.1,29.87,South,170,3.0,6.0,84,0.00,,,0.00,WUHU216DAVISVP2,2013-05-31 10:02:00,
2013-05-31 06:03:00,70.1,65.1,29.87,South,170,3.0,6.0,84,0.00,,,0.00,WUHU216DAVISVP2,2013-05-31 10:03:00,
2013-05-31 06:06:00,70.1,65.4,29.87,SSW,205,0.0,6.0,85,0.00,,,0.00,WUHU216DAVISVP2,2013-05-31 10:06:00,
2013-05-31 06:09:00,70.1,65.4,29.87,SSW,210,1.0,6.0,85,0.00,,,0.00,WUHU216DAVISVP2,2013-05-31 10:09:00,
2013-05-31 06:12:00,70.1,65.4,29.87,SSW,196,0.0,5.0,85,0.00,,,0.00,WUHU216DAVISVP2,2013-05-31 10:12:00,
2013-05-31 06:13:00,70.0,65.3,29.87,SW,226,3.0,5.0,85,0.00,,,0.00,WUHU216DAVISVP2,2013-05-31 10:13:00,
2013-05-31 06:14:00,70.0,65.3,29.87,SW,226,3.0,5.0,85,0.00,,,0.00,WUHU216DAVISVP2,2013-05-31 10:14:00,
2013-05-31 06:17:00,70.0,65.3,29.87,SSE,163,2.0,6.0,85,0.00,,,0.00,WUHU216DAVISVP2,2013-05-31 10:17:00,
2013-05-31 06:19:00,70.0,65.3,29.87,South,186,0.0,6.0,85,0.00,,,0.00,WUHU216DAVISVP2,2013-05-31 10:19:00,
2013-05-31 06:22:00,70.0,65.3,29.87,SW,228,0.0,6.0,85,0.00,,,0.00,WUHU216DAVISVP2,2013-05-31 10:22:00,
2013-05-31 06:23:00,70.0,65.3,29.87,SSW,195,1.0,6.0,85,0.00,,,0.00,WUHU216DAVISVP2,2013-05-31 10:23:00,
2013-05-31 06:24:00,70.0,65.3,29.87,SSW,195,1.0,6.0,85,0.00,,,0.00,WUHU216DAVISVP2,2013-05-31 10:24:00,
2013-05-31 06:25:00,70.0,65.3,29.87,SSW,196,1.0,6.0,85,0.00,,,0.00,WUHU216DAVISVP2,2013-05-31 10:25:00,
2013-05-31 06:27:00,70.0,65.3,29.87,SW,227,1.0,6.0,85,0.00,,,0.00,WUHU216DAVISVP2,2013-05-31 10:27:00,
2013-05-31 06:28:00,70.0,65.3,29.87,SSE,147,0.0,6.0,85,0.00,,,0.00,WUHU216DAVISVP2,2013-05-31 10:28:00,
2013-05-31 06:30:00,70.0,65.3,29.87,SSE,147,0.0,6.0,85,0.00,,,0.00,WUHU216DAVISVP2,2013-05-31 10:30:00,
2013-05-31 06:32:00,70.1,65.4,29.87,South,190,1.0,4.0,85,0.00,,,0.00,WUHU216DAVISVP2,2013-05-31 10:32:00,
2013-05-31 06:34:00,70.1,65.4,29.87,WSW,242,5.0,5.0,85,0.00,,,0.00,WUHU216DAVISVP2,2013-05-31 10:34:00,
2013-05-31 06:35:00,70.1,65.4,29.87,WSW,242,5.0,5.0,85,0.00,,,0.00,WUHU216DAVISVP2,2013-05-31 10:35:00,
2013-05-31 06:37:00,70.2,65.5,29.87,SSE,161,0.0,5.0,85,0.00,,,0.00,WUHU216DAVISVP2,2013-05-31 10:37:00,
2013-05-31 06:39:00,70.2,65.5,29.87,SSE,161,0.0,5.0,85,0.00,,,0.00,WUHU216DAVISVP2,2013-05-31 10:39:00,
2013-05-31 06:40:00,70.2,65.5,29.87,SSE,161,0.0,5.0,85,0.00,,,0.00,WUHU216DAVISVP2,2013-05-31 10:40:00,
2013-05-31 06:42:00,70.2,65.5,29.87,West,278,0.0,5.0,85,0.00,,,0.00,WUHU216DAVISVP2,2013-05-31 10:42:00,
2013-05-31 06:44:00,70.2,65.5,29.87,SSW,198,1.0,5.0,85,0.01,,,0.01,WUHU216DAVISVP2,2013-05-31 10:44:00,
2013-05-31 06:45:00,70.2,65.5,29.87,SSW,198,1.0,5.0,85,0.01,,,0.01,WUHU216DAVISVP2,2013-05-31 10:45:00,
2013-05-31 06:50:00,70.3,65.3,29.87,SSW,207,1.0,6.0,84,0.01,,,0.01,WUHU216DAVISVP2,2013-05-31 10:50:00,
2013-05-31 06:52:00,70.3,65.3,29.87,SSW,212,1.0,6.0,84,0.01,,,0.01,WUHU216DAVISVP2,2013-05-31 10:52:00,
2013-05-31 06:55:00,70.3,65.3,29.87,WSW,239,0.0,5.0,84,0.01,,,0.01,WUHU216DAVISVP2,2013-05-31 10:55:00,
2013-05-31 06:56:00,70.4,65.4,29.87,South,173,1.0,6.0,84,0.01,,,0.01,WUHU216DAVISVP2,2013-05-31 10:56:00,
2013-05-31 06:58:00,70.3,65.3,29.87,South,190,0.0,6.0,84,0.01,,,0.01,WUHU216DAVISVP2,2013-05-31 10:58:00,
2013-05-31 07:00:00,70.4,65.4,29.88,SSE,150,1.0,6.0,84,0.01,,,0.01,WUHU216DAVISVP2,2013-05-31 11:00:00,
2013-05-31 07:01:00,70.3,65.3,29.88,SE,135,1.0,6.0,84,0.01,,,0.01,WUHU216DAVISVP2,2013-05-31 11:01:00,
2013-05-31 07:04:00,70.4,65.4,29.87,WSW,249,2.0,6.0,84,0.01,,,0.01,WUHU216DAVISVP2,2013-05-31 11:04:00,
2013-05-31 07:05:00,70.4,65.4,29.87,WSW,249,2.0,6.0,84,0.01,,,0.01,WUHU216DAVISVP2,2013-05-31 11:05:00,
2013-05-31 07:06:00,70.4,65.4,29.87,SW,229,0.0,5.0,84,0.01,,,0.01,WUHU216DAVISVP2,2013-05-31 11:06:00,
2013-05-31 07:07:00,70.4,65.4,29.87,ESE,118,1.0,5.0,84,0.01,,,0.01,WUHU216DAVISVP2,2013-05-31 11:07:00,
2013-05-31 07:09:00,70.4,65.4,29.87,South,191,1.0,5.0,84,0.01,,,0.01,WUHU216DAVISVP2,2013-05-31 11:09:00,
2013-05-31 07:10:00,70.4,65.4,29.87,South,191,1.0,5.0,84,0.01,,,0.01,WUHU216DAVISVP2,2013-05-31 11:10:00,
2013-05-31 07:11:00,70.5,65.5,29.87,SSW,206,1.0,5.0,84,0.01,,,0.01,WUHU216DAVISVP2,2013-05-31 11:11:00,
2013-05-31 07:13:00,70.5,65.5,29.87,SSW,203,0.0,5.0,84,0.01,,,0.01,WUHU216DAVISVP2,2013-05-31 11:13:00,
2013-05-31 07:15:00,70.6,65.6,29.87,SW,225,2.0,5.0,84,0.01,,,0.01,WUHU216DAVISVP2,2013-05-31 11:15:00,
2013-05-31 07:17:00,70.5,65.5,29.87,ESE,111,0.0,5.0,84,0.01,,,0.01,WUHU216DAVISVP2,2013-05-31 11:17:00,
2013-05-31 07:19:00,70.6,65.6,29.87,SSW,212,1.0,6.0,84,0.01,,,0.01,WUHU216DAVISVP2,2013-05-31 11:19:00,
2013-05-31 07:20:00,70.6,65.6,29.87,SSE,162,2.0,6.0,84,0.01,,,0.01,WUHU216DAVISVP2,2013-05-31 11:20:00,
2013-05-31 07:23:00,70.7,65.6,29.87,SW,215,0.0,6.0,84,0.01,,,0.01,WUHU216DAVISVP2,2013-05-31 11:23:00,
2013-05-31 07:25:00,70.8,65.7,29.87,SSW,207,0.0,6.0,84,0.01,,,0.01,WUHU216DAVISVP2,2013-05-31 11:25:00,
2013-05-31 07:26:00,70.8,65.7,29.87,SSW,207,0.0,6.0,84,0.01,,,0.01,WUHU216DAVISVP2,2013-05-31 11:26:00,
2013-05-31 07:29:00,71.0,65.9,29.87,SW,219,3.0,6.0,84,0.01,,,0.01,WUHU216DAVISVP2,2013-05-31 11:29:00,
2013-05-31 07:31:00,71.1,65.7,29.87,WSW,256,0.0,6.0,83,0.01,,,0.01,WUHU216DAVISVP2,2013-05-31 11:31:00,
2013-05-31 07:32:00,71.2,65.8,29.87,SSE,154,1.0,6.0,83,0.01,,,0.01,WUHU216DAVISVP2,2013-05-31 11:32:00,
2013-05-31 07:36:00,71.5,66.5,29.87,SW,234,0.0,6.0,84,0.01,,,0.01,WUHU216DAVISVP2,2013-05-31 11:36:00,
2013-05-31 07:40:00,71.9,66.1,29.87,SW,228,0.0,7.0,82,0.01,,,0.01,WUHU216DAVISVP2,2013-05-31 11:40:00,
2013-05-31 07:41:00,71.9,66.1,29.87,SW,228,0.0,7.0,82,0.01,,,0.01,WUHU216DAVISVP2,2013-05-31 11:41:00,
2013-05-31 07:42:00,72.1,66.7,29.87,WSW,258,0.0,7.0,83,0.01,,,0.01,WUHU216DAVISVP2,2013-05-31 11:42:00,
2013-05-31 07:44:00,72.3,66.6,29.88,SSW,213,0.0,7.0,82,0.00,,,0.01,WUHU216DAVISVP2,2013-05-31 11:44:00,
2013-05-31 07:46:00,72.5,66.4,29.88,SSW,203,1.0,7.0,81,0.00,,,0.01,WUHU216DAVISVP2,2013-05-31 11:46:00,
2013-05-31 07:47:00,72.5,66.4,29.88,SSW,203,1.0,7.0,81,0.00,,,0.01,WUHU216DAVISVP2,2013-05-31 11:47:00,
2013-05-31 07:48:00,72.8,66.7,29.87,WSW,254,1.0,9.0,81,0.00,,,0.01,WUHU216DAVISVP2,2013-05-31 11:48:00,
2013-05-31 07:50:00,72.9,66.8,29.87,SSW,208,0.0,9.0,81,0.00,,,0.01,WUHU216DAVISVP2,2013-05-31 11:50:00,
2013-05-31 07:52:00,73.0,66.9,29.88,SW,220,2.0,9.0,81,0.00,,,0.01,WUHU216DAVISVP2,2013-05-31 11:52:00,
2013-05-31 07:53:00,73.1,66.7,29.88,SW,230,5.0,9.0,80,0.00,,,0.01,WUHU216DAVISVP2,2013-05-31 11:53:00,
2013-05-31 07:55:00,73.3,67.2,29.88,South,173,1.0,9.0,81,0.00,,,0.01,WUHU216DAVISVP2,2013-05-31 11:55:00,
2013-05-31 07:57:00,73.4,66.9,29.88,SW,221,1.0,7.0,80,0.00,,,0.01,WUHU216DAVISVP2,2013-05-31 11:57:00,
2013-05-31 08:00:00,73.6,66.7,29.88,SSE,158,3.0,7.0,79,0.00,,,0.01,WUHU216DAVISVP2,2013-05-31 12:00:00,
2013-05-31 08:02:00,73.6,66.7,29.88,SW,228,2.0,9.0,79,0.00,,,0.01,WUHU216DAVISVP2,2013-05-31 12:02:00,
2013-05-31 08:03:00,73.6,66.7,29.88,SSW,199,5.0,9.0,79,0.00,,,0.01,WUHU216DAVISVP2,2013-05-31 12:03:00,
2013-05-31 08:05:00,73.5,66.6,29.88,WSW,256,5.0,10.0,79,0.00,,,0.01,WUHU216DAVISVP2,2013-05-31 12:05:00,
2013-05-31 08:07:00,73.5,66.6,29.88,SSW,197,4.0,10.0,79,0.00,,,0.01,WUHU216DAVISVP2,2013-05-31 12:07:00,
2013-05-31 08:09:00,73.5,66.7,29.88,West,280,5.0,10.0,79,0.00,,,0.01,WUHU216DAVISVP2,2013-05-31 12:09:00,
2013-05-31 08:12:00,73.4,66.6,29.88,SSW,203,0.0,10.0,79,0.00,,,0.01,WUHU216DAVISVP2,2013-05-31 12:12:00,
2013-05-31 08:14:00,73.4,66.6,29.88,SE,128,0.0,10.0,79,0.00,,,0.01,WUHU216DAVISVP2,2013-05-31 12:14:00,
2013-05-31 08:16:00,73.4,66.6,29.88,SE,133,6.0,9.0,79,0.00,,,0.01,WUHU216DAVISVP2,2013-05-31 12:16:00,
2013-05-31 08:17:00,73.4,66.6,29.87,SSW,200,2.0,9.0,79,0.00,,,0.01,WUHU216DAVISVP2,2013-05-31 12:17:00,
2013-05-31 08:18:00,73.4,66.6,29.88,WSW,254,1.0,9.0,79,0.00,,,0.01,WUHU216DAVISVP2,2013-05-31 12:18:00,
2013-05-31 08:22:00,73.4,66.6,29.87,SSW,212,0.0,7.0,79,0.00,,,0.01,WUHU216DAVISVP2,2013-05-31 12:22:00,
2013-05-31 08:23:00,73.4,66.6,29.87,SSW,212,0.0,7.0,79,0.00,,,0.01,WUHU216DAVISVP2,2013-05-31 12:23:00,
2013-05-31 08:28:00,73.6,66.8,29.87,SW,231,9.0,11.0,79,0.00,,,0.01,WUHU216DAVISVP2,2013-05-31 12:28:00,
2013-05-31 08:29:00,73.7,66.9,29.87,SE,126,6.0,11.0,79,0.00,,,0.01,WUHU216DAVISVP2,2013-05-31 12:29:00,
2013-05-31 08:32:00,73.8,66.6,29.87,WSW,252,4.0,11.0,78,0.00,,,0.01,WUHU216DAVISVP2,2013-05-31 12:32:00,
2013-05-31 08:33:00,73.8,66.6,29.87,WSW,252,4.0,11.0,78,0.00,,,0.01,WUHU216DAVISVP2,2013-05-31 12:33:00,
2013-05-31 08:37:00,74.3,67.1,29.87,WSW,246,4.0,11.0,78,0.00,,,0.01,WUHU216DAVISVP2,2013-05-31 12:37:00,
2013-05-31 08:38:00,74.5,66.9,29.87,WSW,240,4.0,12.0,77,0.00,,,0.01,WUHU216DAVISVP2,2013-05-31 12:38:00,
2013-05-31 08:40:00,74.7,67.5,29.87,SW,220,2.0,12.0,78,0.00,,,0.01,WUHU216DAVISVP2,2013-05-31 12:40:00,
2013-05-31 08:42:00,74.9,67.7,29.87,SE,136,5.0,12.0,78,0.00,,,0.01,WUHU216DAVISVP2,2013-05-31 12:42:00,
2013-05-31 08:44:00,75.0,67.4,29.87,SW,221,4.0,12.0,77,0.00,,,0.01,WUHU216DAVISVP2,2013-05-31 12:44:00,
2013-05-31 08:45:00,75.1,67.5,29.87,WSW,248,0.0,12.0,77,0.00,,,0.01,WUHU216DAVISVP2,2013-05-31 12:45:00,
2013-05-31 08:47:00,75.3,67.6,29.87,SE,131,2.0,12.0,77,0.00,,,0.01,WUHU216DAVISVP2,2013-05-31 12:47:00,
2013-05-31 08:49:00,75.4,67.7,29.87,SE,140,1.0,6.0,77,0.00,,,0.01,WUHU216DAVISVP2,2013-05-31 12:49:00,
2013-05-31 08:50:00,75.5,67.6,29.87,SW,236,1.0,7.0,76,0.00,,,0.01,WUHU216DAVISVP2,2013-05-31 12:50:00,
2013-05-31 08:54:00,75.5,67.2,29.87,South,175,4.0,8.0,75,0.00,,,0.01,WUHU216DAVISVP2,2013-05-31 12:54:00,
2013-05-31 08:58:00,75.3,67.0,29.87,SSE,165,0.0,9.0,75,0.00,,,0.01,WUHU216DAVISVP2,2013-05-31 12:58:00,
2013-05-31 08:59:00,75.3,67.0,29.87,SSE,165,0.0,9.0,75,0.00,,,0.01,WUHU216DAVISVP2,2013-05-31 12:59:00,
2013-05-31 09:00:00,75.3,67.4,29.87,SSE,159,2.0,9.0,76,0.00,,,0.01,WUHU216DAVISVP2,2013-05-31 13:00:00,
2013-05-31 09:04:00,75.5,67.0,29.87,SSW,196,4.0,9.0,75,0.00,,,0.01,WUHU216DAVISVP2,2013-05-31 13:04:00,
2013-05-31 09:06:00,75.6,67.1,29.87,South,190,5.0,8.0,75,0.00,,,0.01,WUHU216DAVISVP2,2013-05-31 13:06:00,
2013-05-31 09:08:00,75.7,67.6,29.87,West,281,5.0,8.0,76,0.00,,,0.01,WUHU216DAVISVP2,2013-05-31 13:08:00,
2013-05-31 09:09:00,75.7,67.6,29.87,West,281,5.0,8.0,76,0.00,,,0.01,WUHU216DAVISVP2,2013-05-31 13:09:00,
2013-05-31 09:14:00,76.0,67.7,29.88,West,265,3.0,10.0,75,0.00,,,0.01,WUHU216DAVISVP2,2013-05-31 13:14:00,
2013-05-31 09:16:00,76.1,67.6,29.87,South,169,3.0,10.0,75,0.00,,,0.01,WUHU216DAVISVP2,2013-05-31 13:16:00,
2013-05-31 09:18:00,76.2,67.3,29.87,West,259,2.0,11.0,74,0.00,,,0.01,WUHU216DAVISVP2,2013-05-31 13:18:00,
2013-05-31 09:20:00,76.4,67.5,29.87,SW,223,1.0,11.0,74,0.00,,,0.01,WUHU216DAVISVP2,2013-05-31 13:20:00,
2013-05-31 09:23:00,76.6,67.9,29.87,South,184,6.0,12.0,74,0.00,,,0.01,WUHU216DAVISVP2,2013-05-31 13:23:00,
2013-05-31 09:25:00,76.6,67.5,29.87,WSW,252,5.0,14.0,73,0.00,,,0.01,WUHU216DAVISVP2,2013-05-31 13:25:00,
2013-05-31 09:28:00,76.7,68.0,29.87,SSW,203,0.0,14.0,74,0.00,,,0.01,WUHU216DAVISVP2,2013-05-31 13:28:00,
2013-05-31 09:30:00,76.8,67.7,29.87,SW,225,6.0,14.0,73,0.00,,,0.01,WUHU216DAVISVP2,2013-05-31 13:30:00,
2013-05-31 09:31:00,76.9,67.8,29.86,WSW,244,4.0,14.0,73,0.00,,,0.01,WUHU216DAVISVP2,2013-05-31 13:31:00,
2013-05-31 09:32:00,77.0,68.3,29.87,WSW,238,6.0,14.0,74,0.00,,,0.01,WUHU216DAVISVP2,2013-05-31 13:32:00,
2013-05-31 09:35:00,77.0,67.9,29.87,West,269,5.0,10.0,73,0.00,,,0.01,WUHU216DAVISVP2,2013-05-31 13:35:00,
2013-05-31 09:37:00,77.0,67.3,29.87,South,190,9.0,10.0,72,0.00,,,0.01,WUHU216DAVISVP2,2013-05-31 13:37:00,
2013-05-31 09:39:00,77.0,67.3,29.87,South,172,6.0,10.0,72,0.00,,,0.01,WUHU216DAVISVP2,2013-05-31 13:39:00,
2013-05-31 09:40:00,77.0,67.3,29.87,South,172,6.0,10.0,72,0.00,,,0.01,WUHU216DAVISVP2,2013-05-31 13:40:00,
2013-05-31 09:42:00,77.0,67.3,29.87,SSE,163,6.0,16.0,72,0.00,,,0.01,WUHU216DAVISVP2,2013-05-31 13:42:00,
2013-05-31 09:45:00,77.0,67.7,29.87,SSE,162,9.0,16.0,73,0.00,,,0.01,WUHU216DAVISVP2,2013-05-31 13:45:00,
2013-05-31 09:46:00,77.1,67.4,29.87,South,183,6.0,16.0,72,0.00,,,0.01,WUHU216DAVISVP2,2013-05-31 13:46:00,
2013-05-31 09:47:00,77.2,67.5,29.87,West,263,3.0,16.0,72,0.00,,,0.01,WUHU216DAVISVP2,2013-05-31 13:47:00,
2013-05-31 09:50:00,77.3,67.2,29.87,WNW,289,5.0,16.0,71,0.00,,,0.01,WUHU216DAVISVP2,2013-05-31 13:50:00,
2013-05-31 09:51:00,77.1,67.4,29.87,West,266,2.0,12.0,72,0.00,,,0.01,WUHU216DAVISVP2,2013-05-31 13:51:00,
2013-05-31 09:53:00,77.2,67.5,29.87,West,261,7.0,12.0,72,0.00,,,0.01,WUHU216DAVISVP2,2013-05-31 13:53:00,
2013-05-31 09:55:00,77.3,68.0,29.87,SE,132,5.0,12.0,73,0.00,,,0.01,WUHU216DAVISVP2,2013-05-31 13:55:00,
2013-05-31 09:58:00,77.5,68.3,29.87,WNW,285,5.0,12.0,73,0.00,,,0.01,WUHU216DAVISVP2,2013-05-31 13:58:00,
2013-05-31 10:00:00,77.6,68.4,29.86,WSW,242,0.0,11.0,73,0.00,,,0.01,WUHU216DAVISVP2,2013-05-31 14:00:00,
2013-05-31 10:01:00,77.6,68.4,29.86,WSW,242,0.0,11.0,73,0.00,,,0.01,WUHU216DAVISVP2,2013-05-31 14:01:00,
2013-05-31 10:03:00,77.8,67.4,29.87,West,265,5.0,15.0,70,0.00,,,0.01,WUHU216DAVISVP2,2013-05-31 14:03:00,
2013-05-31 10:05:00,77.8,67.8,29.86,SSW,207,10.0,15.0,71,0.00,,,0.01,WUHU216DAVISVP2,2013-05-31 14:05:00,
2013-05-31 10:06:00,77.8,67.8,29.86,SSW,207,10.0,15.0,71,0.00,,,0.01,WUHU216DAVISVP2,2013-05-31 14:06:00,
2013-05-31 10:08:00,77.8,68.2,29.86,WNW,303,9.0,15.0,72,0.00,,,0.01,WUHU216DAVISVP2,2013-05-31 14:08:00,
2013-05-31 10:10:00,77.8,67.8,29.86,WSW,255,2.0,15.0,71,0.00,,,0.01,WUHU216DAVISVP2,2013-05-31 14:10:00,
2013-05-31 10:11:00,77.8,67.8,29.86,WSW,255,2.0,15.0,71,0.00,,,0.01,WUHU216DAVISVP2,2013-05-31 14:11:00,
2013-05-31 10:13:00,78.0,67.8,29.86,SW,222,3.0,11.0,71,0.00,,,0.01,WUHU216DAVISVP2,2013-05-31 14:13:00,
2013-05-31 10:16:00,78.0,67.4,29.86,WSW,244,5.0,11.0,70,0.00,,,0.01,WUHU216DAVISVP2,2013-05-31 14:16:00,
2013-05-31 10:18:00,78.0,67.8,29.86,WSW,246,4.0,11.0,71,0.00,,,0.01,WUHU216DAVISVP2,2013-05-31 14:18:00,
2013-05-31 10:20:00,77.9,67.3,29.86,SW,223,3.0,10.0,70,0.00,,,0.01,WUHU216DAVISVP2,2013-05-31 14:20:00,
2013-05-31 10:21:00,77.9,67.3,29.86,SW,223,3.0,10.0,70,0.00,,,0.01,WUHU216DAVISVP2,2013-05-31 14:21:00,
2013-05-31 10:22:00,77.8,67.6,29.86,West,266,5.0,10.0,71,0.00,,,0.01,WUHU216DAVISVP2,2013-05-31 14:22:00,
2013-05-31 10:24:00,77.7,67.1,29.86,ESE,121,3.0,10.0,70,0.00,,,0.01,WUHU216DAVISVP2,2013-05-31 14:24:00,
2013-05-31 10:26:00,77.6,67.4,29.85,West,271,5.0,10.0,71,0.00,,,0.01,WUHU216DAVISVP2,2013-05-31 14:26:00,
2013-05-31 10:28:00,77.6,67.9,29.86,West,259,1.0,10.0,72,0.00,,,0.01,WUHU216DAVISVP2,2013-05-31 14:28:00,
2013-05-31 10:30:00,77.7,68.1,29.86,West,269,8.0,10.0,72,0.00,,,0.01,WUHU216DAVISVP2,2013-05-31 14:30:00,
2013-05-31 10:31:00,77.8,67.8,29.86,WNW,286,1.0,10.0,71,0.00,,,0.01,WUHU216DAVISVP2,2013-05-31 14:31:00,
2013-05-31 10:32:00,77.8,67.8,29.86,WNW,286,1.0,10.0,71,0.00,,,0.01,WUHU216DAVISVP2,2013-05-31 14:32:00,
2013-05-31 10:35:00,77.8,67.8,29.86,SW,227,2.0,11.0,71,0.00,,,0.01,WUHU216DAVISVP2,2013-05-31 14:35:00,
2013-05-31 10:37:00,77.9,67.9,29.86,SSW,199,9.0,11.0,71,0.00,,,0.01,WUHU216DAVISVP2,2013-05-31 14:37:00,
2013-05-31 10:39:00,77.9,67.5,29.86,SSE,164,4.0,12.0,70,0.00,,,0.01,WUHU216DAVISVP2,2013-05-31 14:39:00,
2013-05-31 10:40:00,78.0,68.4,29.86,South,183,6.0,12.0,72,0.00,,,0.01,WUHU216DAVISVP2,2013-05-31 14:40:00,
2013-05-31 10:42:00,78.2,67.8,29.86,SSW,209,7.0,12.0,70,0.00,,,0.01,WUHU216DAVISVP2,2013-05-31 14:42:00,
2013-05-31 10:45:00,78.4,68.0,29.86,SSW,200,6.0,12.0,70,0.00,,,0.01,WUHU216DAVISVP2,2013-05-31 14:45:00,
2013-05-31 10:47:00,78.5,68.5,29.86,West,263,4.0,12.0,71,0.00,,,0.01,WUHU216DAVISVP2,2013-05-31 14:47:00,
2013-05-31 10:48:00,78.7,68.7,29.85,West,269,4.0,12.0,71,0.00,,,0.01,WUHU216DAVISVP2,2013-05-31 14:48:00,
2013-05-31 10:52:00,79.2,69.2,29.86,West,281,5.0,11.0,71,0.00,,,0.01,WUHU216DAVISVP2,2013-05-31 14:52:00,
2013-05-31 10:54:00,79.4,68.1,29.86,WSW,258,4.0,11.0,68,0.00,,,0.01,WUHU216DAVISVP2,2013-05-31 14:54:00,
2013-05-31 10:56:00,79.4,68.6,29.86,South,182,2.0,15.0,69,0.00,,,0.01,WUHU216DAVISVP2,2013-05-31 14:56:00,
2013-05-31 10:57:00,79.4,68.6,29.86,South,182,2.0,15.0,69,0.00,,,0.01,WUHU216DAVISVP2,2013-05-31 14:57:00,
2013-05-31 10:58:00,79.3,68.5,29.86,SSW,211,10.0,15.0,69,0.00,,,0.01,WUHU216DAVISVP2,2013-05-31 14:58:00,
2013-05-31 11:00:00,79.2,68.0,29.86,West,270,4.0,15.0,68,0.00,,,0.01,WUHU216DAVISVP2,2013-05-31 15:00:00,
2013-05-31 11:02:00,79.1,68.3,29.86,SSW,211,1.0,15.0,69,0.00,,,0.01,WUHU216DAVISVP2,2013-05-31 15:02:00,
2013-05-31 11:04:00,78.9,67.7,29.86,SW,214,4.0,15.0,68,0.00,,,0.01,WUHU216DAVISVP2,2013-05-31 15:04:00,
2013-05-31 11:06:00,78.8,68.0,29.86,West,274,5.0,13.0,69,0.00,,,0.01,WUHU216DAVISVP2,2013-05-31 15:06:00,
2013-05-31 11:08:00,78.8,67.6,29.86,West,259,5.0,13.0,68,0.00,,,0.01,WUHU216DAVISVP2,2013-05-31 15:08:00,
2013-05-31 11:11:00,78.8,67.6,29.86,SW,229,5.0,13.0,68,0.00,,,0.01,WUHU216DAVISVP2,2013-05-31 15:11:00,
2013-05-31 11:13:00,78.8,67.6,29.86,SW,229,5.0,13.0,68,0.00,,,0.01,WUHU216DAVISVP2,2013-05-31 15:13:00,
2013-05-31 11:15:00,79.0,68.2,29.86,WSW,251,5.0,11.0,69,0.00,,,0.01,WUHU216DAVISVP2,2013-05-31 15:15:00,
2013-05-31 11:18:00,79.2,67.5,29.85,WSW,248,5.0,11.0,67,0.00,,,0.01,WUHU216DAVISVP2,2013-05-31 15:18:00,
2013-05-31 11:19:00,79.4,67.7,29.85,SW,224,4.0,11.0,67,0.00,,,0.01,WUHU216DAVISVP2,2013-05-31 15:19:00,
2013-05-31 11:22:00,79.6,67.5,29.85,SSW,194,5.0,12.0,66,0.00,,,0.01,WUHU216DAVISVP2,2013-05-31 15:22:00,
2013-05-31 11:23:00,79.6,67.5,29.85,SSW,194,5.0,12.0,66,0.00,,,0.01,WUHU216DAVISVP2,2013-05-31 15:23:00,
2013-05-31 11:24:00,79.7,68.4,29.85,WSW,253,6.0,12.0,68,0.00,,,0.01,WUHU216DAVISVP2,2013-05-31 15:24:00,
2013-05-31 11:28:00,80.0,68.3,29.85,WNW,284,1.0,12.0,67,0.00,,,0.01,WUHU216DAVISVP2,2013-05-31 15:28:00,
2013-05-31 11:29:00,80.0,67.9,29.86,SW,225,2.0,14.0,66,0.00,,,0.01,WUHU216DAVISVP2,2013-05-31 15:29:00,
2013-05-31 11:32:00,79.7,67.3,29.86,SSW,213,1.0,14.0,66,0.00,,,0.01,WUHU216DAVISVP2,2013-05-31 15:32:00,
2013-05-31 11:33:00,79.7,67.3,29.86,SSW,213,1.0,14.0,66,0.00,,,0.01,WUHU216DAVISVP2,2013-05-31 15:33:00,
2013-05-31 11:36:00,79.4,67.9,29.85,WSW,249,6.0,14.0,68,0.00,,,0.01,WUHU216DAVISVP2,2013-05-31 15:36:00,
2013-05-31 11:37:00,79.3,68.2,29.86,WSW,255,7.0,14.0,69,0.00,,,0.01,WUHU216DAVISVP2,2013-05-31 15:37:00,
2013-05-31 11:38:00,79.3,68.2,29.86,WSW,255,7.0,14.0,69,0.00,,,0.01,WUHU216DAVISVP2,2013-05-31 15:38:00,
2013-05-31 11:39:00,79.2,68.1,29.86,WSW,248,3.0,12.0,69,0.00,,,0.01,WUHU216DAVISVP2,2013-05-31 15:39:00,
2013-05-31 11:41:00,79.2,67.7,29.85,SSW,200,3.0,8.0,68,0.00,,,0.01,WUHU216DAVISVP2,2013-05-31 15:41:00,
2013-05-31 11:44:00,79.0,68.2,29.86,WSW,243,0.0,8.0,69,0.00,,,0.01,WUHU216DAVISVP2,2013-05-31 15:44:00,
2013-05-31 11:47:00,78.6,68.2,29.85,SW,223,7.0,9.0,70,0.00,,,0.01,WUHU216DAVISVP2,2013-05-31 15:47:00,
2013-05-31 11:49:00,78.4,68.0,29.86,WSW,238,1.0,9.0,70,0.00,,,0.01,WUHU216DAVISVP2,2013-05-31 15:49:00,
2013-05-31 11:50:00,78.2,68.2,29.86,WSW,249,0.0,9.0,71,0.00,,,0.01,WUHU216DAVISVP2,2013-05-31 15:50:00,
2013-05-31 11:51:00,77.9,67.9,29.86,WSW,252,2.0,9.0,71,0.00,,,0.01,WUHU216DAVISVP2,2013-05-31 15:51:00,
2013-05-31 11:53:00,77.6,68.1,29.86,WSW,247,5.0,9.0,72,0.00,,,0.01,WUHU216DAVISVP2,2013-05-31 15:53:00,
2013-05-31 11:54:00,77.6,68.1,29.86,WSW,247,5.0,9.0,72,0.00,,,0.01,WUHU216DAVISVP2,2013-05-31 15:54:00,
2013-05-31 11:55:00,77.2,68.4,29.86,South,190,1.0,9.0,74,0.00,,,0.01,WUHU216DAVISVP2,2013-05-31 15:55:00,
2013-05-31 11:59:00,76.4,68.4,29.86,WNW,290,1.0,9.0,76,0.00,,,0.01,WUHU216DAVISVP2,2013-05-31 15:59:00,
2013-05-31 12:00:00,76.0,68.4,29.86,WSW,250,4.0,9.0,77,0.00,,,0.01,WUHU216DAVISVP2,2013-05-31 16:00:00,
2013-05-31 12:01:00,75.7,68.5,29.86,West,266,3.0,9.0,78,0.00,,,0.01,WUHU216DAVISVP2,2013-05-31 16:01:00,
2013-05-31 12:04:00,75.3,68.7,29.87,WSW,245,1.0,9.0,80,0.00,,,0.01,WUHU216DAVISVP2,2013-05-31 16:04:00,
2013-05-31 12:05:00,75.1,68.5,29.86,West,261,0.0,9.0,80,0.00,,,0.01,WUHU216DAVISVP2,2013-05-31 16:05:00,
2013-05-31 12:07:00,74.9,68.7,29.86,SSW,199,1.0,9.0,81,0.00,,,0.01,WUHU216DAVISVP2,2013-05-31 16:07:00,
2013-05-31 12:09:00,74.7,68.5,29.86,SSE,147,4.0,7.0,81,0.00,,,0.01,WUHU216DAVISVP2,2013-05-31 16:09:00,
2013-05-31 12:11:00,74.5,68.3,29.86,SSE,165,1.0,7.0,81,0.00,,,0.01,WUHU216DAVISVP2,2013-05-31 16:11:00,
2013-05-31 12:12:00,74.5,68.3,29.86,SSW,212,4.0,8.0,81,0.00,,,0.01,WUHU216DAVISVP2,2013-05-31 16:12:00,
2013-05-31 12:14:00,74.4,68.5,29.86,West,263,1.0,8.0,82,0.00,,,0.01,WUHU216DAVISVP2,2013-05-31 16:14:00,
2013-05-31 12:19:00,74.6,69.1,29.86,SSW,205,6.0,9.0,83,0.00,,,0.01,WUHU216DAVISVP2,2013-05-31 16:19:00,
2013-05-31 12:20:00,74.6,68.8,29.86,SW,229,4.0,9.0,82,0.00,,,0.01,WUHU216DAVISVP2,2013-05-31 16:20:00,
2013-05-31 12:22:00,74.6,68.8,29.86,West,270,4.0,9.0,82,0.00,,,0.01,WUHU216DAVISVP2,2013-05-31 16:22:00,
2013-05-31 12:24:00,74.7,68.9,29.86,WNW,301,5.0,11.0,82,0.00,,,0.01,WUHU216DAVISVP2,2013-05-31 16:24:00,
2013-05-31 12:25:00,74.7,68.9,29.86,WNW,301,5.0,11.0,82,0.00,,,0.01,WUHU216DAVISVP2,2013-05-31 16:25:00,
2013-05-31 12:26:00,74.8,69.0,29.86,WSW,252,2.0,11.0,82,0.00,,,0.01,WUHU216DAVISVP2,2013-05-31 16:26:00,
2013-05-31 12:27:00,74.9,69.1,29.86,WNW,294,6.0,11.0,82,0.00,,,0.01,WUHU216DAVISVP2,2013-05-31 16:27:00,
2013-05-31 12:29:00,75.1,69.3,29.86,SW,229,1.0,11.0,82,0.00,,,0.01,WUHU216DAVISVP2,2013-05-31 16:29:00,
2013-05-31 12:30:00,75.1,69.3,29.86,SW,229,1.0,11.0,82,0.00,,,0.01,WUHU216DAVISVP2,2013-05-31 16:30:00,
2013-05-31 12:31:00,75.2,69.0,29.87,West,263,4.0,11.0,81,0.00,,,0.01,WUHU216DAVISVP2,2013-05-31 16:31:00,
2013-05-31 12:33:00,75.4,69.2,29.86,SSE,166,1.0,10.0,81,0.00,,,0.01,WUHU216DAVISVP2,2013-05-31 16:33:00,
2013-05-31 12:34:00,75.5,69.3,29.87,West,277,5.0,10.0,81,0.00,,,0.01,WUHU216DAVISVP2,2013-05-31 16:34:00,
2013-05-31 12:35:00,75.5,69.3,29.87,West,277,5.0,10.0,81,0.00,,,0.01,WUHU216DAVISVP2,2013-05-31 16:35:00,
2013-05-31 12:37:00,75.8,68.8,29.87,WSW,256,2.0,11.0,79,0.00,,,0.01,WUHU216DAVISVP2,2013-05-31 16:37:00,
2013-05-31 12:38:00,75.9,69.0,29.87,WSW,248,2.0,11.0,79,0.00,,,0.01,WUHU216DAVISVP2,2013-05-31 16:38:00,
2013-05-31 12:40:00,76.0,69.1,29.87,WNW,288,1.0,11.0,79,0.00,,,0.01,WUHU216DAVISVP2,2013-05-31 16:40:00,
2013-05-31 12:42:00,76.2,69.3,29.86,West,263,1.0,11.0,79,0.00,,,0.01,WUHU216DAVISVP2,2013-05-31 16:42:00,
2013-05-31 12:45:00,76.4,68.7,29.87,WSW,243,1.0,15.0,77,0.00,,,0.01,WUHU216DAVISVP2,2013-05-31 16:45:00,
2013-05-31 12:47:00,76.4,68.7,29.87,SSE,159,12.0,15.0,77,0.00,,,0.01,WUHU216DAVISVP2,2013-05-31 16:47:00,
2013-05-31 12:49:00,76.3,68.2,29.87,West,269,10.0,15.0,76,0.00,,,0.01,WUHU216DAVISVP2,2013-05-31 16:49:00,
2013-05-31 12:50:00,76.1,68.0,29.87,SSW,200,5.0,15.0,76,0.00,,,0.01,WUHU216DAVISVP2,2013-05-31 16:50:00,
2013-05-31 12:53:00,75.9,67.8,29.87,West,269,4.0,15.0,76,0.00,,,0.01,WUHU216DAVISVP2,2013-05-31 16:53:00,
2013-05-31 12:54:00,75.8,67.7,29.87,SSW,208,6.0,14.0,76,0.00,,,0.01,WUHU216DAVISVP2,2013-05-31 16:54:00,
2013-05-31 12:56:00,75.8,67.7,29.87,SSW,208,6.0,14.0,76,0.00,,,0.01,WUHU216DAVISVP2,2013-05-31 16:56:00,
2013-05-31 12:58:00,75.5,67.6,29.87,WSW,254,2.0,12.0,76,0.00,,,0.01,WUHU216DAVISVP2,2013-05-31 16:58:00,
2013-05-31 13:00:00,75.5,67.9,29.86,WSW,246,3.0,15.0,77,0.00,,,0.01,WUHU216DAVISVP2,2013-05-31 17:00:00,
2013-05-31 13:01:00,75.5,67.9,29.86,WSW,246,3.0,15.0,77,0.00,,,0.01,WUHU216DAVISVP2,2013-05-31 17:01:00,
2013-05-31 13:03:00,75.3,67.7,29.86,SW,227,6.0,15.0,77,0.00,,,0.01,WUHU216DAVISVP2,2013-05-31 17:03:00,
2013-05-31 13:05:00,75.3,68.1,29.86,SSW,213,5.0,15.0,78,0.00,,,0.01,WUHU216DAVISVP2,2013-05-31 17:05:00,
2013-05-31 13:06:00,75.3,68.1,29.86,SSW,213,5.0,15.0,78,0.00,,,0.01,WUHU216DAVISVP2,2013-05-31 17:06:00,
2013-05-31 13:07:00,75.2,67.5,29.86,WSW,246,8.0,15.0,77,0.00,,,0.01,WUHU216DAVISVP2,2013-05-31 17:07:00,
2013-05-31 13:09:00,75.3,68.0,29.86,WSW,257,1.0,14.0,78,0.00,,,0.01,WUHU216DAVISVP2,2013-05-31 17:09:00,
2013-05-31 13:10:00,75.2,67.5,29.86,West,265,6.0,10.0,77,0.00,,,0.01,WUHU216DAVISVP2,2013-05-31 17:10:00,
2013-05-31 13:11:00,75.2,67.5,29.86,West,265,6.0,10.0,77,0.00,,,0.01,WUHU216DAVISVP2,2013-05-31 17:11:00,
2013-05-31 13:13:00,75.2,68.3,29.85,West,281,4.0,9.0,79,0.00,,,0.01,WUHU216DAVISVP2,2013-05-31 17:13:00,
2013-05-31 13:16:00,75.3,68.1,29.86,WSW,243,7.0,12.0,78,0.00,,,0.01,WUHU216DAVISVP2,2013-05-31 17:16:00,
2013-05-31 13:17:00,75.2,68.0,29.86,West,259,0.0,14.0,78,0.00,,,0.01,WUHU216DAVISVP2,2013-05-31 17:17:00,
2013-05-31 13:19:00,75.2,68.0,29.86,WSW,257,5.0,14.0,78,0.00,,,0.01,WUHU216DAVISVP2,2013-05-31 17:19:00,
2013-05-31 13:21:00,75.2,68.0,29.86,WSW,242,3.0,14.0,78,0.00,,,0.01,WUHU216DAVISVP2,2013-05-31 17:21:00,
2013-05-31 13:22:00,75.2,67.9,29.85,WSW,247,1.0,14.0,78,0.00,,,0.01,WUHU216DAVISVP2,2013-05-31 17:22:00,
2013-05-31 13:25:00,75.3,68.0,29.86,WSW,241,6.0,14.0,78,0.00,,,0.01,WUHU216DAVISVP2,2013-05-31 17:25:00,
2013-05-31 13:26:00,75.4,68.1,29.86,SW,236,1.0,9.0,78,0.00,,,0.01,WUHU216DAVISVP2,2013-05-31 17:26:00,
2013-05-31 13:28:00,75.5,68.5,29.86,South,186,6.0,7.0,79,0.00,,,0.01,WUHU216DAVISVP2,2013-05-31 17:28:00,
2013-05-31 13:30:00,75.6,68.3,29.86,West,280,1.0,9.0,78,0.00,,,0.01,WUHU216DAVISVP2,2013-05-31 17:30:00,
2013-05-31 13:32:00,75.6,68.4,29.86,SSE,155,4.0,10.0,78,0.00,,,0.01,WUHU216DAVISVP2,2013-05-31 17:32:00,
2013-05-31 13:34:00,75.6,68.4,29.87,WSW,258,0.0,10.0,78,0.00,,,0.01,WUHU216DAVISVP2,2013-05-31 17:34:00,
2013-05-31 13:36:00,75.6,68.4,29.86,West,273,4.0,10.0,78,0.00,,,0.01,WUHU216DAVISVP2,2013-05-31 17:36:00,
2013-05-31 13:37:00,75.6,68.4,29.86,West,273,4.0,10.0,78,0.00,,,0.01,WUHU216DAVISVP2,2013-05-31 17:37:00,
2013-05-31 13:38:00,75.6,68.4,29.87,West,274,5.0,10.0,78,0.00,,,0.01,WUHU216DAVISVP2,2013-05-31 17:38:00,
2013-05-31 13:41:00,75.5,68.3,29.87,West,271,6.0,10.0,78,0.00,,,0.01,WUHU216DAVISVP2,2013-05-31 17:41:00,
2013-05-31 13:42:00,75.5,68.3,29.87,West,271,6.0,10.0,78,0.00,,,0.01,WUHU216DAVISVP2,2013-05-31 17:42:00,
2013-05-31 13:45:00,75.3,68.3,29.87,West,270,2.0,11.0,79,0.00,,,0.01,WUHU216DAVISVP2,2013-05-31 17:45:00,
2013-05-31 13:47:00,75.3,68.7,29.87,SE,143,2.0,11.0,80,0.00,,,0.01,WUHU216DAVISVP2,2013-05-31 17:47:00,
2013-05-31 13:48:00,75.2,68.6,29.87,WSW,249,6.0,11.0,80,0.01,,,0.02,WUHU216DAVISVP2,2013-05-31 17:48:00,
2013-05-31 13:49:00,75.0,68.4,29.87,SW,232,3.0,11.0,80,0.02,,,0.03,WUHU216DAVISVP2,2013-05-31 17:49:00,
2013-05-31 13:52:00,74.6,68.4,29.87,WSW,251,1.0,11.0,81,0.02,,,0.03,WUHU216DAVISVP2,2013-05-31 17:52:00,
2013-05-31 13:55:00,73.5,68.4,29.87,SW,229,4.0,10.0,84,0.06,,,0.07,WUHU216DAVISVP2,2013-05-31 17:55:00,
2013-05-31 13:57:00,73.2,68.5,29.87,SSW,207,0.0,10.0,85,0.06,,,0.08,WUHU216DAVISVP2,2013-05-31 17:57:00,
2013-05-31 13:59:00,72.9,68.8,29.87,SSW,205,4.0,9.0,87,0.07,,,0.08,WUHU216DAVISVP2,2013-05-31 17:59:00,
2013-05-31 14:02:00,72.7,68.9,29.87,WSW,246,2.0,9.0,88,0.07,,,0.08,WUHU216DAVISVP2,2013-05-31 18:02:00,
2013-05-31 14:04:00,72.5,68.7,29.87,SW,234,6.0,16.0,88,0.07,,,0.08,WUHU216DAVISVP2,2013-05-31 18:04:00,
2013-05-31 14:06:00,72.5,69.1,29.86,SW,222,1.0,16.0,89,0.07,,,0.08,WUHU216DAVISVP2,2013-05-31 18:06:00,
2013-05-31 14:08:00,72.5,69.1,29.86,WSW,251,4.0,16.0,89,0.07,,,0.08,WUHU216DAVISVP2,2013-05-31 18:08:00,
2013-05-31 14:09:00,72.5,68.7,29.86,SW,236,1.0,16.0,88,0.07,,,0.08,WUHU216DAVISVP2,2013-05-31 18:09:00,
2013-05-31 14:11:00,72.5,68.7,29.86,WSW,257,4.0,16.0,88,0.07,,,0.08,WUHU216DAVISVP2,2013-05-31 18:11:00,
2013-05-31 14:13:00,72.5,68.1,29.86,WSW,243,4.0,16.0,86,0.07,,,0.08,WUHU216DAVISVP2,2013-05-31 18:13:00,
2013-05-31 14:15:00,72.5,68.1,29.85,SSW,204,1.0,12.0,86,0.07,,,0.08,WUHU216DAVISVP2,2013-05-31 18:15:00,
2013-05-31 14:17:00,72.5,68.1,29.86,WSW,240,1.0,12.0,86,0.07,,,0.08,WUHU216DAVISVP2,2013-05-31 18:17:00,
2013-05-31 14:18:00,72.5,68.1,29.86,WSW,240,1.0,12.0,86,0.07,,,0.08,WUHU216DAVISVP2,2013-05-31 18:18:00,
2013-05-31 14:21:00,72.6,67.8,29.86,WSW,242,5.0,8.0,85,0.07,,,0.08,WUHU216DAVISVP2,2013-05-31 18:21:00,
2013-05-31 14:23:00,72.7,68.6,29.86,WSW,256,1.0,8.0,87,0.07,,,0.08,WUHU216DAVISVP2,2013-05-31 18:23:00,
2013-05-31 14:26:00,72.8,68.4,29.86,WSW,253,2.0,8.0,86,0.07,,,0.08,WUHU216DAVISVP2,2013-05-31 18:26:00,
2013-05-31 14:27:00,72.8,68.0,29.86,SW,227,2.0,9.0,85,0.07,,,0.08,WUHU216DAVISVP2,2013-05-31 18:27:00,
2013-05-31 14:28:00,72.8,68.0,29.86,SW,227,2.0,9.0,85,0.07,,,0.08,WUHU216DAVISVP2,2013-05-31 18:28:00,
2013-05-31 14:29:00,72.9,68.2,29.86,WNW,286,5.0,9.0,85,0.07,,,0.08,WUHU216DAVISVP2,2013-05-31 18:29:00,
2013-05-31 14:31:00,73.0,68.3,29.86,WSW,250,4.0,9.0,85,0.07,,,0.08,WUHU216DAVISVP2,2013-05-31 18:31:00,
2013-05-31 14:32:00,73.0,67.9,29.86,SW,235,2.0,9.0,84,0.07,,,0.08,WUHU216DAVISVP2,2013-05-31 18:32:00,
2013-05-31 14:34:00,73.0,67.9,29.86,SW,235,2.0,9.0,84,0.07,,,0.08,WUHU216DAVISVP2,2013-05-31 18:34:00,
2013-05-31 14:36:00,73.2,68.8,29.86,WSW,247,0.0,9.0,86,0.07,,,0.08,WUHU216DAVISVP2,2013-05-31 18:36:00,
2013-05-31 14:37:00,73.3,68.6,29.86,South,191,5.0,8.0,85,0.07,,,0.08,WUHU216DAVISVP2,2013-05-31 18:37:00,
2013-05-31 14:39:00,73.3,68.6,29.86,South,191,5.0,8.0,85,0.07,,,0.08,WUHU216DAVISVP2,2013-05-31 18:39:00,
2013-05-31 14:42:00,73.3,67.5,29.86,WSW,247,4.0,13.0,82,0.07,,,0.08,WUHU216DAVISVP2,2013-05-31 18:42:00,
2013-05-31 14:43:00,73.3,67.5,29.86,SSW,211,5.0,14.0,82,0.07,,,0.08,WUHU216DAVISVP2,2013-05-31 18:43:00,
2013-05-31 14:44:00,73.3,67.5,29.86,SSW,211,5.0,14.0,82,0.07,,,0.08,WUHU216DAVISVP2,2013-05-31 18:44:00,
2013-05-31 14:45:00,73.2,67.4,29.86,WSW,250,2.0,14.0,82,0.07,,,0.08,WUHU216DAVISVP2,2013-05-31 18:45:00,
2013-05-31 14:47:00,73.1,67.3,29.86,WNW,284,1.0,14.0,82,0.07,,,0.08,WUHU216DAVISVP2,2013-05-31 18:47:00,
2013-05-31 14:48:00,73.1,67.3,29.86,SSW,213,6.0,14.0,82,0.06,,,0.08,WUHU216DAVISVP2,2013-05-31 18:48:00,
2013-05-31 14:49:00,73.1,67.3,29.86,SSW,213,6.0,14.0,82,0.06,,,0.08,WUHU216DAVISVP2,2013-05-31 18:49:00,
2013-05-31 14:50:00,73.0,67.2,29.86,West,269,2.0,14.0,82,0.05,,,0.08,WUHU216DAVISVP2,2013-05-31 18:50:00,
2013-05-31 14:52:00,73.0,67.6,29.86,WSW,250,5.0,11.0,83,0.04,,,0.08,WUHU216DAVISVP2,2013-05-31 18:52:00,
2013-05-31 14:54:00,73.1,67.3,29.86,WSW,246,1.0,11.0,82,0.01,,,0.08,WUHU216DAVISVP2,2013-05-31 18:54:00,
2013-05-31 14:55:00,73.2,67.4,29.86,WSW,252,4.0,8.0,82,0.01,,,0.08,WUHU216DAVISVP2,2013-05-31 18:55:00,
2013-05-31 14:57:00,73.3,67.5,29.86,SW,224,1.0,8.0,82,0.00,,,0.08,WUHU216DAVISVP2,2013-05-31 18:57:00,
2013-05-31 14:59:00,73.4,67.6,29.85,WSW,244,3.0,8.0,82,0.00,,,0.08,WUHU216DAVISVP2,2013-05-31 18:59:00,
2013-05-31 15:00:00,73.4,67.2,29.85,WNW,284,9.0,10.0,81,0.00,,,0.08,WUHU216DAVISVP2,2013-05-31 19:00:00,
2013-05-31 15:02:00,73.5,67.7,29.85,West,266,5.0,14.0,82,0.00,,,0.08,WUHU216DAVISVP2,2013-05-31 19:02:00,
2013-05-31 15:04:00,73.6,67.5,29.85,WSW,257,1.0,14.0,81,0.00,,,0.08,WUHU216DAVISVP2,2013-05-31 19:04:00,
2013-05-31 15:05:00,73.7,67.9,29.85,SSW,206,1.0,14.0,82,0.00,,,0.08,WUHU216DAVISVP2,2013-05-31 19:05:00,
2013-05-31 15:07:00,73.8,66.6,29.85,NW,315,1.0,14.0,78,0.00,,,0.08,WUHU216DAVISVP2,2013-05-31 19:07:00,
2013-05-31 15:09:00,73.9,66.6,29.85,WSW,250,2.0,14.0,78,0.00,,,0.08,WUHU216DAVISVP2,2013-05-31 19:09:00,
2013-05-31 15:10:00,73.9,66.6,29.85,WSW,250,2.0,14.0,78,0.00,,,0.08,WUHU216DAVISVP2,2013-05-31 19:10:00,
2013-05-31 15:11:00,74.0,66.3,29.85,West,260,4.0,13.0,77,0.00,,,0.08,WUHU216DAVISVP2,2013-05-31 19:11:00,
2013-05-31 15:13:00,74.1,66.8,29.85,South,182,5.0,11.0,78,0.00,,,0.08,WUHU216DAVISVP2,2013-05-31 19:13:00,
2013-05-31 15:15:00,74.3,67.0,29.85,West,275,6.0,11.0,78,0.00,,,0.08,WUHU216DAVISVP2,2013-05-31 19:15:00,
2013-05-31 15:16:00,74.5,67.2,29.85,WSW,251,6.0,11.0,78,0.00,,,0.08,WUHU216DAVISVP2,2013-05-31 19:16:00,
2013-05-31 15:18:00,74.5,67.2,29.85,WSW,251,6.0,11.0,78,0.00,,,0.08,WUHU216DAVISVP2,2013-05-31 19:18:00,
2013-05-31 15:19:00,74.7,67.0,29.85,WSW,251,5.0,9.0,77,0.00,,,0.08,WUHU216DAVISVP2,2013-05-31 19:19:00,
2013-05-31 15:21:00,74.7,66.6,29.85,West,262,5.0,11.0,76,0.00,,,0.08,WUHU216DAVISVP2,2013-05-31 19:21:00,
2013-05-31 15:23:00,74.7,67.1,29.85,WSW,252,2.0,11.0,77,0.00,,,0.08,WUHU216DAVISVP2,2013-05-31 19:23:00,
2013-05-31 15:25:00,74.8,67.2,29.85,SW,217,2.0,11.0,77,0.00,,,0.08,WUHU216DAVISVP2,2013-05-31 19:25:00,
2013-05-31 15:26:00,74.9,68.1,29.84,WSW,241,0.0,11.0,79,0.00,,,0.08,WUHU216DAVISVP2,2013-05-31 19:26:00,
2013-05-31 15:28:00,75.0,68.2,29.84,SSW,213,1.0,11.0,79,0.00,,,0.08,WUHU216DAVISVP2,2013-05-31 19:28:00,
2013-05-31 15:32:00,75.1,67.0,29.84,West,259,6.0,11.0,76,0.00,,,0.08,WUHU216DAVISVP2,2013-05-31 19:32:00,
2013-05-31 15:33:00,75.1,67.0,29.84,West,259,6.0,11.0,76,0.00,,,0.08,WUHU216DAVISVP2,2013-05-31 19:33:00,
2013-05-31 15:35:00,75.0,66.5,29.84,WSW,242,1.0,11.0,75,0.00,,,0.08,WUHU216DAVISVP2,2013-05-31 19:35:00,
2013-05-31 15:37:00,75.0,66.9,29.84,West,265,2.0,11.0,76,0.00,,,0.08,WUHU216DAVISVP2,2013-05-31 19:37:00,
2013-05-31 15:39:00,75.1,67.4,29.84,SSW,211,2.0,11.0,77,0.00,,,0.08,WUHU216DAVISVP2,2013-05-31 19:39:00,
2013-05-31 15:41:00,75.1,66.6,29.84,WSW,258,5.0,11.0,75,0.00,,,0.08,WUHU216DAVISVP2,2013-05-31 19:41:00,
2013-05-31 15:43:00,75.1,67.2,29.84,SW,225,7.0,8.0,76,0.00,,,0.08,WUHU216DAVISVP2,2013-05-31 19:43:00,
2013-05-31 15:44:00,75.1,67.2,29.84,SW,225,7.0,8.0,76,0.00,,,0.08,WUHU216DAVISVP2,2013-05-31 19:44:00,
2013-05-31 15:45:00,75.1,66.4,29.84,West,265,1.0,9.0,74,0.00,,,0.08,WUHU216DAVISVP2,2013-05-31 19:45:00,
2013-05-31 15:48:00,75.0,66.7,29.83,WSW,245,1.0,9.0,75,0.00,,,0.08,WUHU216DAVISVP2,2013-05-31 19:48:00,
2013-05-31 15:49:00,75.0,66.7,29.83,WSW,245,1.0,9.0,75,0.00,,,0.08,WUHU216DAVISVP2,2013-05-31 19:49:00,
2013-05-31 15:50:00,74.9,66.4,29.83,WSW,253,2.0,9.0,75,0.00,,,0.08,WUHU216DAVISVP2,2013-05-31 19:50:00,
2013-05-31 15:52:00,74.9,66.8,29.83,West,268,6.0,9.0,76,0.00,,,0.08,WUHU216DAVISVP2,2013-05-31 19:52:00,
2013-05-31 15:53:00,74.9,66.4,29.83,WSW,255,5.0,9.0,75,0.00,,,0.08,WUHU216DAVISVP2,2013-05-31 19:53:00,
2013-05-31 15:54:00,74.9,66.4,29.83,WSW,255,5.0,9.0,75,0.00,,,0.08,WUHU216DAVISVP2,2013-05-31 19:54:00,
2013-05-31 15:55:00,74.9,66.8,29.83,WNW,293,3.0,9.0,76,0.00,,,0.08,WUHU216DAVISVP2,2013-05-31 19:55:00,
2013-05-31 15:56:00,74.8,66.3,29.83,SW,234,1.0,9.0,75,0.00,,,0.08,WUHU216DAVISVP2,2013-05-31 19:56:00,
2013-05-31 15:58:00,74.8,66.7,29.83,SW,232,1.0,9.0,76,0.00,,,0.08,WUHU216DAVISVP2,2013-05-31 19:58:00,
2013-05-31 15:59:00,74.7,67.4,29.83,West,262,0.0,9.0,78,0.00,,,0.08,WUHU216DAVISVP2,2013-05-31 19:59:00,
2013-05-31 16:00:00,74.7,67.4,29.83,West,262,0.0,9.0,78,0.00,,,0.08,WUHU216DAVISVP2,2013-05-31 20:00:00,
2013-05-31 16:01:00,74.7,67.0,29.83,West,264,4.0,9.0,77,0.00,,,0.08,WUHU216DAVISVP2,2013-05-31 20:01:00,
2013-05-31 16:05:00,74.7,67.1,29.83,WSW,246,2.0,9.0,77,0.00,,,0.08,WUHU216DAVISVP2,2013-05-31 20:05:00,
2013-05-31 16:07:00,74.6,67.0,29.83,SW,231,2.0,9.0,77,0.00,,,0.08,WUHU216DAVISVP2,2013-05-31 20:07:00,
2013-05-31 16:09:00,74.6,67.0,29.83,SW,224,4.0,9.0,77,0.00,,,0.08,WUHU216DAVISVP2,2013-05-31 20:09:00,
2013-05-31 16:11:00,74.6,67.0,29.83,SW,227,1.0,9.0,77,0.00,,,0.08,WUHU216DAVISVP2,2013-05-31 20:11:00,
2013-05-31 16:12:00,74.6,67.3,29.83,WSW,241,1.0,9.0,78,0.00,,,0.08,WUHU216DAVISVP2,2013-05-31 20:12:00,
2013-05-31 16:15:00,74.5,67.2,29.82,West,272,1.0,6.0,78,0.00,,,0.08,WUHU216DAVISVP2,2013-05-31 20:15:00,
2013-05-31 16:16:00,74.5,67.2,29.82,West,272,1.0,6.0,78,0.00,,,0.08,WUHU216DAVISVP2,2013-05-31 20:16:00,
2013-05-31 16:17:00,74.6,67.8,29.82,WSW,244,2.0,7.0,79,0.00,,,0.08,WUHU216DAVISVP2,2013-05-31 20:17:00,
2013-05-31 16:20:00,74.6,67.4,29.82,SSW,193,2.0,10.0,78,0.00,,,0.08,WUHU216DAVISVP2,2013-05-31 20:20:00,
2013-05-31 16:21:00,74.6,67.4,29.82,SSW,193,2.0,10.0,78,0.00,,,0.08,WUHU216DAVISVP2,2013-05-31 20:21:00,
2013-05-31 16:23:00,74.4,67.5,29.83,WSW,257,8.0,10.0,79,0.00,,,0.08,WUHU216DAVISVP2,2013-05-31 20:23:00,
2013-05-31 16:25:00,74.3,67.1,29.82,West,259,1.0,10.0,78,0.00,,,0.08,WUHU216DAVISVP2,2013-05-31 20:25:00,
2013-05-31 16:26:00,74.3,67.1,29.82,West,259,1.0,10.0,78,0.00,,,0.08,WUHU216DAVISVP2,2013-05-31 20:26:00,
2013-05-31 16:28:00,74.2,67.0,29.82,South,183,5.0,10.0,78,0.00,,,0.08,WUHU216DAVISVP2,2013-05-31 20:28:00,
2013-05-31 16:30:00,74.2,67.4,29.83,SSW,199,0.0,9.0,79,0.00,,,0.08,WUHU216DAVISVP2,2013-05-31 20:30:00,
2013-05-31 16:31:00,74.2,67.4,29.83,SSW,199,0.0,9.0,79,0.00,,,0.08,WUHU216DAVISVP2,2013-05-31 20:31:00,
2013-05-31 16:33:00,74.2,67.3,29.83,SE,141,1.0,9.0,79,0.00,,,0.08,WUHU216DAVISVP2,2013-05-31 20:33:00,
2013-05-31 16:35:00,74.2,67.3,29.82,WSW,253,2.0,7.0,79,0.00,,,0.08,WUHU216DAVISVP2,2013-05-31 20:35:00,
2013-05-31 16:38:00,74.1,67.2,29.82,WSW,240,4.0,6.0,79,0.00,,,0.08,WUHU216DAVISVP2,2013-05-31 20:38:00,
2013-05-31 16:40:00,74.2,67.6,29.82,SSW,195,1.0,6.0,80,0.00,,,0.08,WUHU216DAVISVP2,2013-05-31 20:40:00,
2013-05-31 16:42:00,74.2,67.6,29.82,SSW,195,1.0,6.0,80,0.00,,,0.08,WUHU216DAVISVP2,2013-05-31 20:42:00,
2013-05-31 16:43:00,74.2,67.6,29.82,WSW,254,6.0,6.0,80,0.00,,,0.08,WUHU216DAVISVP2,2013-05-31 20:43:00,
2013-05-31 16:44:00,74.2,67.3,29.82,SSW,200,0.0,9.0,79,0.00,,,0.08,WUHU216DAVISVP2,2013-05-31 20:44:00,
2013-05-31 16:46:00,74.2,67.7,29.82,SW,234,0.0,9.0,80,0.00,,,0.08,WUHU216DAVISVP2,2013-05-31 20:46:00,
2013-05-31 16:47:00,74.2,67.7,29.82,SW,234,0.0,9.0,80,0.00,,,0.08,WUHU216DAVISVP2,2013-05-31 20:47:00,
2013-05-31 16:49:00,74.1,67.3,29.82,WSW,254,4.0,12.0,79,0.00,,,0.08,WUHU216DAVISVP2,2013-05-31 20:49:00,
2013-05-31 16:52:00,74.0,67.5,29.82,SSW,196,0.0,12.0,80,0.00,,,0.08,WUHU216DAVISVP2,2013-05-31 20:52:00,
2013-05-31 16:54:00,73.9,67.4,29.82,WSW,237,1.0,12.0,80,0.00,,,0.08,WUHU216DAVISVP2,2013-05-31 20:54:00,
2013-05-31 16:55:00,74.0,67.9,29.82,West,271,2.0,12.0,81,0.00,,,0.08,WUHU216DAVISVP2,2013-05-31 20:55:00,
2013-05-31 16:57:00,74.1,68.0,29.81,SW,223,0.0,12.0,81,0.00,,,0.08,WUHU216DAVISVP2,2013-05-31 20:57:00,
2013-05-31 16:59:00,74.3,68.1,29.81,WSW,257,6.0,8.0,81,0.00,,,0.08,WUHU216DAVISVP2,2013-05-31 20:59:00,
2013-05-31 17:01:00,74.6,68.0,29.81,SE,134,7.0,8.0,80,0.00,,,0.08,WUHU216DAVISVP2,2013-05-31 21:01:00,
2013-05-31 17:02:00,74.6,68.0,29.81,SE,134,7.0,8.0,80,0.00,,,0.08,WUHU216DAVISVP2,2013-05-31 21:02:00,
2013-05-31 17:03:00,74.9,68.1,29.81,WSW,249,1.0,8.0,79,0.00,,,0.08,WUHU216DAVISVP2,2013-05-31 21:03:00,
2013-05-31 17:06:00,75.3,68.1,29.81,SSW,211,4.0,8.0,78,0.00,,,0.08,WUHU216DAVISVP2,2013-05-31 21:06:00,
2013-05-31 17:07:00,75.3,68.1,29.81,SSW,211,4.0,8.0,78,0.00,,,0.08,WUHU216DAVISVP2,2013-05-31 21:07:00,
2013-05-31 17:08:00,75.5,67.8,29.80,West,272,4.0,8.0,77,0.00,,,0.08,WUHU216DAVISVP2,2013-05-31 21:08:00,
2013-05-31 17:12:00,75.7,67.7,29.80,South,186,1.0,7.0,76,0.00,,,0.08,WUHU216DAVISVP2,2013-05-31 21:12:00,
2013-05-31 17:15:00,75.6,67.6,29.81,WSW,258,5.0,8.0,76,0.00,,,0.08,WUHU216DAVISVP2,2013-05-31 21:15:00,
2013-05-31 17:17:00,75.5,67.6,29.81,SSW,200,3.0,8.0,76,0.00,,,0.08,WUHU216DAVISVP2,2013-05-31 21:17:00,
2013-05-31 17:18:00,75.5,67.4,29.81,SSW,202,1.0,8.0,76,0.00,,,0.08,WUHU216DAVISVP2,2013-05-31 21:18:00,
2013-05-31 17:21:00,75.5,67.0,29.81,WSW,239,5.0,8.0,75,0.00,,,0.08,WUHU216DAVISVP2,2013-05-31 21:21:00,
2013-05-31 17:22:00,75.5,67.4,29.81,SW,227,6.0,8.0,76,0.00,,,0.08,WUHU216DAVISVP2,2013-05-31 21:22:00,
2013-05-31 17:24:00,75.5,67.0,29.81,WSW,244,4.0,8.0,75,0.00,,,0.08,WUHU216DAVISVP2,2013-05-31 21:24:00,
2013-05-31 17:26:00,75.5,67.6,29.81,WSW,240,2.0,8.0,76,0.00,,,0.08,WUHU216DAVISVP2,2013-05-31 21:26:00,
2013-05-31 17:28:00,75.5,67.6,29.81,WSW,240,2.0,8.0,76,0.00,,,0.08,WUHU216DAVISVP2,2013-05-31 21:28:00,
2013-05-31 17:29:00,75.5,67.2,29.82,South,190,0.0,8.0,75,0.00,,,0.08,WUHU216DAVISVP2,2013-05-31 21:29:00,
2013-05-31 17:32:00,75.5,67.9,29.81,SW,221,5.0,7.0,77,0.00,,,0.08,WUHU216DAVISVP2,2013-05-31 21:32:00,
2013-05-31 17:33:00,75.5,67.9,29.81,SW,221,5.0,7.0,77,0.00,,,0.08,WUHU216DAVISVP2,2013-05-31 21:33:00,
2013-05-31 17:35:00,75.4,67.1,29.81,South,178,2.0,14.0,75,0.00,,,0.08,WUHU216DAVISVP2,2013-05-31 21:35:00,
2013-05-31 17:38:00,75.4,67.1,29.81,WSW,245,3.0,14.0,75,0.00,,,0.08,WUHU216DAVISVP2,2013-05-31 21:38:00,
2013-05-31 17:43:00,75.2,67.1,29.81,WSW,237,0.0,8.0,76,0.00,,,0.08,WUHU216DAVISVP2,2013-05-31 21:43:00,
2013-05-31 17:45:00,75.1,66.6,29.81,WSW,238,1.0,7.0,75,0.00,,,0.08,WUHU216DAVISVP2,2013-05-31 21:45:00,
2013-05-31 17:47:00,75.1,66.6,29.81,SW,217,4.0,7.0,75,0.00,,,0.08,WUHU216DAVISVP2,2013-05-31 21:47:00,
2013-05-31 17:48:00,74.9,66.8,29.81,West,273,4.0,7.0,76,0.00,,,0.08,WUHU216DAVISVP2,2013-05-31 21:48:00,
2013-05-31 17:49:00,74.9,66.8,29.81,SW,222,4.0,8.0,76,0.00,,,0.08,WUHU216DAVISVP2,2013-05-31 21:49:00,
2013-05-31 17:54:00,74.7,67.1,29.82,SW,229,1.0,8.0,77,0.00,,,0.08,WUHU216DAVISVP2,2013-05-31 21:54:00,
2013-05-31 17:56:00,74.5,67.2,29.81,SW,231,1.0,8.0,78,0.00,,,0.08,WUHU216DAVISVP2,2013-05-31 21:56:00,
2013-05-31 17:59:00,74.4,67.5,29.81,SW,229,0.0,8.0,79,0.00,,,0.08,WUHU216DAVISVP2,2013-05-31 21:59:00,
2013-05-31 18:01:00,74.4,67.9,29.81,SSE,156,1.0,5.0,80,0.00,,,0.08,WUHU216DAVISVP2,2013-05-31 22:01:00,
2013-05-31 18:04:00,74.3,67.8,29.81,South,191,1.0,5.0,80,0.00,,,0.08,WUHU216DAVISVP2,2013-05-31 22:04:00,
2013-05-31 18:08:00,73.9,67.4,29.81,SSW,211,0.0,8.0,80,0.01,,,0.09,WUHU216DAVISVP2,2013-05-31 22:08:00,
2013-05-31 18:09:00,73.9,67.4,29.81,SSW,211,0.0,8.0,80,0.01,,,0.09,WUHU216DAVISVP2,2013-05-31 22:09:00,
2013-05-31 18:10:00,73.7,67.9,29.82,SSE,150,0.0,8.0,82,0.01,,,0.10,WUHU216DAVISVP2,2013-05-31 22:10:00,
2013-05-31 18:12:00,73.4,67.9,29.82,South,169,1.0,8.0,83,0.04,,,0.12,WUHU216DAVISVP2,2013-05-31 22:12:00,
2013-05-31 18:14:00,73.4,67.9,29.82,South,169,1.0,8.0,83,0.04,,,0.12,WUHU216DAVISVP2,2013-05-31 22:14:00,
2013-05-31 18:15:00,72.7,67.6,29.82,SW,229,2.0,8.0,84,0.06,,,0.14,WUHU216DAVISVP2,2013-05-31 22:15:00,
2013-05-31 18:17:00,72.2,67.4,29.82,SW,217,0.0,6.0,85,0.07,,,0.15,WUHU216DAVISVP2,2013-05-31 22:17:00,
2013-05-31 18:19:00,71.9,67.5,29.82,West,261,4.0,6.0,86,0.08,,,0.16,WUHU216DAVISVP2,2013-05-31 22:19:00,
2013-05-31 18:20:00,71.4,67.0,29.82,WSW,252,2.0,6.0,86,0.10,,,0.18,WUHU216DAVISVP2,2013-05-31 22:20:00,
2013-05-31 18:24:00,70.8,66.7,29.81,WSW,248,1.0,6.0,87,0.13,,,0.21,WUHU216DAVISVP2,2013-05-31 22:24:00,
2013-05-31 18:27:00,70.1,66.7,29.82,WSW,255,1.0,10.0,89,0.18,,,0.26,WUHU216DAVISVP2,2013-05-31 22:27:00,
2013-05-31 18:29:00,69.9,66.8,29.82,WSW,257,3.0,10.0,90,0.21,,,0.29,WUHU216DAVISVP2,2013-05-31 22:29:00,
2013-05-31 18:30:00,69.7,66.6,29.82,WSW,256,1.0,10.0,90,0.21,,,0.29,WUHU216DAVISVP2,2013-05-31 22:30:00,
2013-05-31 18:32:00,69.5,66.4,29.82,SSW,206,0.0,10.0,90,0.23,,,0.31,WUHU216DAVISVP2,2013-05-31 22:32:00,
2013-05-31 18:34:00,69.4,66.7,29.82,WSW,244,1.0,10.0,91,0.24,,,0.32,WUHU216DAVISVP2,2013-05-31 22:34:00,
2013-05-31 18:36:00,69.2,66.5,29.82,SSW,194,0.0,6.0,91,0.24,,,0.32,WUHU216DAVISVP2,2013-05-31 22:36:00,
2013-05-31 18:39:00,69.0,66.6,29.81,WSW,244,0.0,6.0,92,0.24,,,0.32,WUHU216DAVISVP2,2013-05-31 22:39:00,
2013-05-31 18:40:00,69.0,66.6,29.81,WSW,244,0.0,6.0,92,0.24,,,0.32,WUHU216DAVISVP2,2013-05-31 22:40:00,
2013-05-31 18:42:00,69.0,66.6,29.81,SSW,210,0.0,6.0,92,0.24,,,0.32,WUHU216DAVISVP2,2013-05-31 22:42:00,
2013-05-31 18:43:00,69.0,66.9,29.82,SSW,198,0.0,6.0,93,0.24,,,0.32,WUHU216DAVISVP2,2013-05-31 22:43:00,
2013-05-31 18:45:00,69.0,66.9,29.82,SSW,198,0.0,6.0,93,0.24,,,0.32,WUHU216DAVISVP2,2013-05-31 22:45:00,
2013-05-31 18:47:00,69.2,67.1,29.81,SW,232,0.0,4.0,93,0.24,,,0.32,WUHU216DAVISVP2,2013-05-31 22:47:00,
2013-05-31 18:49:00,69.4,67.6,29.82,WSW,244,4.0,4.0,94,0.24,,,0.32,WUHU216DAVISVP2,2013-05-31 22:49:00,
2013-05-31 18:50:00,69.4,67.6,29.82,WSW,244,4.0,4.0,94,0.24,,,0.32,WUHU216DAVISVP2,2013-05-31 22:50:00,
2013-05-31 18:51:00,69.5,67.7,29.82,WSW,244,0.0,5.0,94,0.24,,,0.32,WUHU216DAVISVP2,2013-05-31 22:51:00,
2013-05-31 18:53:00,69.5,67.4,29.82,SW,229,0.0,7.0,93,0.24,,,0.32,WUHU216DAVISVP2,2013-05-31 22:53:00,
2013-05-31 18:55:00,69.6,67.5,29.82,WSW,243,1.0,7.0,93,0.24,,,0.32,WUHU216DAVISVP2,2013-05-31 22:55:00,
2013-05-31 18:58:00,69.7,67.6,29.82,SSW,208,3.0,7.0,93,0.24,,,0.32,WUHU216DAVISVP2,2013-05-31 22:58:00,
2013-05-31 19:00:00,69.8,67.7,29.82,SW,227,0.0,7.0,93,0.24,,,0.32,WUHU216DAVISVP2,2013-05-31 23:00:00,
2013-05-31 19:01:00,69.8,67.7,29.82,SW,221,0.0,7.0,93,0.24,,,0.32,WUHU216DAVISVP2,2013-05-31 23:01:00,
2013-05-31 19:03:00,69.9,67.8,29.82,West,272,1.0,6.0,93,0.24,,,0.32,WUHU216DAVISVP2,2013-05-31 23:03:00,
2013-05-31 19:05:00,69.9,67.8,29.82,WSW,257,2.0,6.0,93,0.24,,,0.32,WUHU216DAVISVP2,2013-05-31 23:05:00,
2013-05-31 19:07:00,69.9,67.4,29.82,WSW,238,1.0,6.0,92,0.24,,,0.32,WUHU216DAVISVP2,2013-05-31 23:07:00,
2013-05-31 19:09:00,69.9,67.4,29.82,SW,225,0.0,6.0,92,0.23,,,0.32,WUHU216DAVISVP2,2013-05-31 23:09:00,
2013-05-31 19:10:00,69.9,67.4,29.82,SW,225,0.0,6.0,92,0.23,,,0.32,WUHU216DAVISVP2,2013-05-31 23:10:00,
2013-05-31 19:12:00,70.0,67.9,29.82,West,280,1.0,6.0,93,0.21,,,0.32,WUHU216DAVISVP2,2013-05-31 23:12:00,
2013-05-31 19:14:00,70.1,68.0,29.82,SSW,212,2.0,6.0,93,0.19,,,0.32,WUHU216DAVISVP2,2013-05-31 23:14:00,
2013-05-31 19:15:00,70.1,68.0,29.82,SSW,212,2.0,6.0,93,0.19,,,0.32,WUHU216DAVISVP2,2013-05-31 23:15:00,
2013-05-31 19:17:00,70.1,67.6,29.82,West,276,1.0,6.0,92,0.17,,,0.32,WUHU216DAVISVP2,2013-05-31 23:17:00,
2013-05-31 19:18:00,70.1,67.6,29.82,West,275,0.0,7.0,92,0.16,,,0.32,WUHU216DAVISVP2,2013-05-31 23:18:00,
2013-05-31 19:20:00,70.2,67.7,29.82,SSE,165,2.0,7.0,92,0.14,,,0.32,WUHU216DAVISVP2,2013-05-31 23:20:00,
2013-05-31 19:21:00,70.2,67.7,29.82,SSE,165,2.0,7.0,92,0.14,,,0.32,WUHU216DAVISVP2,2013-05-31 23:21:00,
2013-05-31 19:24:00,70.1,67.7,29.82,SW,219,1.0,7.0,92,0.10,,,0.32,WUHU216DAVISVP2,2013-05-31 23:24:00,
2013-05-31 19:26:00,70.1,67.7,29.82,South,171,0.0,7.0,92,0.08,,,0.32,WUHU216DAVISVP2,2013-05-31 23:26:00,
2013-05-31 19:28:00,70.2,67.8,29.82,SW,234,1.0,7.0,92,0.05,,,0.32,WUHU216DAVISVP2,2013-05-31 23:28:00,
2013-05-31 19:31:00,70.2,67.8,29.82,SW,236,1.0,5.0,92,0.02,,,0.32,WUHU216DAVISVP2,2013-05-31 23:31:00,
2013-05-31 19:33:00,70.1,67.7,29.81,WSW,237,1.0,5.0,92,0.01,,,0.32,WUHU216DAVISVP2,2013-05-31 23:33:00,
2013-05-31 19:36:00,70.1,67.7,29.81,South,184,0.0,5.0,92,0.00,,,0.32,WUHU216DAVISVP2,2013-05-31 23:36:00,
2013-05-31 19:38:00,70.1,67.7,29.81,South,191,0.0,5.0,92,0.00,,,0.32,WUHU216DAVISVP2,2013-05-31 23:38:00,
2013-05-31 19:39:00,70.1,67.3,29.81,WSW,258,0.0,5.0,91,0.00,,,0.32,WUHU216DAVISVP2,2013-05-31 23:39:00,
2013-05-31 19:41:00,70.0,67.3,29.81,SSW,209,2.0,5.0,91,0.00,,,0.32,WUHU216DAVISVP2,2013-05-31 23:41:00,
2013-05-31 19:42:00,70.0,67.3,29.81,SSW,209,2.0,5.0,91,0.00,,,0.32,WUHU216DAVISVP2,2013-05-31 23:42:00,
2013-05-31 19:43:00,70.1,67.3,29.81,West,265,5.0,6.0,91,0.00,,,0.32,WUHU216DAVISVP2,2013-05-31 23:43:00,
2013-05-31 19:46:00,70.1,67.6,29.80,SSW,208,2.0,6.0,92,0.00,,,0.32,WUHU216DAVISVP2,2013-05-31 23:46:00,
2013-05-31 19:47:00,70.1,67.6,29.80,SSW,208,2.0,6.0,92,0.00,,,0.32,WUHU216DAVISVP2,2013-05-31 23:47:00,
2013-05-31 19:50:00,70.2,67.4,29.80,WSW,238,0.0,6.0,91,0.00,,,0.32,WUHU216DAVISVP2,2013-05-31 23:50:00,
2013-05-31 19:51:00,70.2,67.4,29.80,SSE,156,0.0,6.0,91,0.00,,,0.32,WUHU216DAVISVP2,2013-05-31 23:51:00,
2013-05-31 19:52:00,70.2,67.4,29.80,SSE,156,0.0,6.0,91,0.00,,,0.32,WUHU216DAVISVP2,2013-05-31 23:52:00,
2013-05-31 19:55:00,70.2,67.4,29.80,SW,222,1.0,4.0,91,0.00,,,0.32,WUHU216DAVISVP2,2013-05-31 23:55:00,
2013-05-31 19:57:00,70.1,67.3,29.80,SW,215,1.0,5.0,91,0.00,,,0.32,WUHU216DAVISVP2,2013-05-31 23:57:00,
2013-05-31 19:58:00,70.2,67.4,29.80,SW,214,0.0,5.0,91,0.00,,,0.32,WUHU216DAVISVP2,2013-05-31 23:58:00,
2013-05-31 20:00:00,70.2,67.4,29.80,SW,219,0.0,5.0,91,0.00,,,0.32,WUHU216DAVISVP2,2013-06-01 00:00:00,
2013-05-31 20:02:00,70.2,67.4,29.80,South,180,4.0,6.0,91,0.00,,,0.32,WUHU216DAVISVP2,2013-06-01 00:02:00,
2013-05-31 20:03:00,70.2,67.4,29.80,South,180,4.0,6.0,91,0.00,,,0.32,WUHU216DAVISVP2,2013-06-01 00:03:00,
2013-05-31 20:04:00,70.1,67.3,29.80,WSW,249,2.0,6.0,91,0.00,,,0.32,WUHU216DAVISVP2,2013-06-01 00:04:00,
2013-05-31 20:08:00,70.2,67.4,29.80,SW,236,0.0,6.0,91,0.00,,,0.32,WUHU216DAVISVP2,2013-06-01 00:08:00,
2013-05-31 20:09:00,70.2,67.4,29.80,SW,226,0.0,6.0,91,0.00,,,0.32,WUHU216DAVISVP2,2013-06-01 00:09:00,
2013-05-31 20:11:00,70.2,67.4,29.80,SSW,207,0.0,6.0,91,0.00,,,0.32,WUHU216DAVISVP2,2013-06-01 00:11:00,
2013-05-31 20:12:00,70.2,67.4,29.80,SSW,207,0.0,4.0,91,0.00,,,0.32,WUHU216DAVISVP2,2013-06-01 00:12:00,
2013-05-31 20:13:00,70.2,67.4,29.80,SSW,207,0.0,4.0,91,0.00,,,0.32,WUHU216DAVISVP2,2013-06-01 00:13:00,
2013-05-31 20:14:00,70.2,67.4,29.80,SSW,207,0.0,4.0,91,0.00,,,0.32,WUHU216DAVISVP2,2013-06-01 00:14:00,
2013-05-31 20:16:00,70.2,67.4,29.81,SSW,206,0.0,2.0,91,0.00,,,0.32,WUHU216DAVISVP2,2013-06-01 00:16:00,
2013-05-31 20:18:00,70.2,67.8,29.81,SW,219,0.0,1.0,92,0.00,,,0.32,WUHU216DAVISVP2,2013-06-01 00:18:00,
2013-05-31 20:19:00,70.1,67.3,29.81,SW,215,0.0,1.0,91,0.00,,,0.32,WUHU216DAVISVP2,2013-06-01 00:19:00,
2013-05-31 20:21:00,70.2,67.8,29.81,SW,215,0.0,1.0,92,0.00,,,0.32,WUHU216DAVISVP2,2013-06-01 00:21:00,
2013-05-31 20:23:00,70.2,67.8,29.81,SW,215,0.0,1.0,92,0.00,,,0.32,WUHU216DAVISVP2,2013-06-01 00:23:00,
2013-05-31 20:25:00,70.2,67.8,29.81,SW,215,0.0,1.0,92,0.00,,,0.32,WUHU216DAVISVP2,2013-06-01 00:25:00,
2013-05-31 20:27:00,70.3,67.9,29.81,SW,215,0.0,1.0,92,0.00,,,0.32,WUHU216DAVISVP2,2013-06-01 00:27:00,
2013-05-31 20:28:00,70.4,68.0,29.80,South,186,1.0,1.0,92,0.00,,,0.32,WUHU216DAVISVP2,2013-06-01 00:28:00,
2013-05-31 20:30:00,70.4,67.9,29.81,South,186,0.0,1.0,92,0.00,,,0.32,WUHU216DAVISVP2,2013-06-01 00:30:00,
2013-05-31 20:33:00,70.4,67.9,29.81,South,186,0.0,1.0,92,0.00,,,0.32,WUHU216DAVISVP2,2013-06-01 00:33:00,
2013-05-31 20:35:00,70.5,67.7,29.80,South,186,0.0,1.0,91,0.00,,,0.32,WUHU216DAVISVP2,2013-06-01 00:35:00,
2013-05-31 20:37:00,70.4,67.6,29.80,South,186,0.0,1.0,91,0.00,,,0.32,WUHU216DAVISVP2,2013-06-01 00:37:00,
2013-05-31 20:39:00,70.4,67.6,29.80,South,186,0.0,1.0,91,0.00,,,0.32,WUHU216DAVISVP2,2013-06-01 00:39:00,
2013-05-31 20:41:00,70.4,67.6,29.80,South,186,0.0,1.0,91,0.00,,,0.32,WUHU216DAVISVP2,2013-06-01 00:41:00,
2013-05-31 20:43:00,70.3,67.5,29.80,South,186,0.0,1.0,91,0.00,,,0.32,WUHU216DAVISVP2,2013-06-01 00:43:00,
2013-05-31 20:44:00,70.3,67.5,29.80,South,186,0.0,1.0,91,0.00,,,0.32,WUHU216DAVISVP2,2013-06-01 00:44:00,
2013-05-31 20:46:00,70.3,67.5,29.80,South,186,0.0,1.0,91,0.00,,,0.32,WUHU216DAVISVP2,2013-06-01 00:46:00,
2013-05-31 20:48:00,70.2,67.4,29.80,South,186,0.0,1.0,91,0.00,,,0.32,WUHU216DAVISVP2,2013-06-01 00:48:00,
2013-05-31 20:49:00,70.2,67.4,29.80,South,186,0.0,1.0,91,0.00,,,0.32,WUHU216DAVISVP2,2013-06-01 00:49:00,
2013-05-31 20:50:00,70.2,67.8,29.80,South,186,0.0,1.0,92,0.00,,,0.32,WUHU216DAVISVP2,2013-06-01 00:50:00,
2013-05-31 20:53:00,70.1,67.6,29.80,South,186,0.0,1.0,92,0.00,,,0.32,WUHU216DAVISVP2,2013-06-01 00:53:00,
2013-05-31 20:54:00,70.1,67.6,29.80,South,186,0.0,1.0,92,0.00,,,0.32,WUHU216DAVISVP2,2013-06-01 00:54:00,
2013-05-31 20:56:00,70.0,67.5,29.79,South,186,0.0,1.0,92,0.00,,,0.32,WUHU216DAVISVP2,2013-06-01 00:56:00,
2013-05-31 20:59:00,70.0,67.5,29.79,South,186,0.0,1.0,92,0.00,,,0.32,WUHU216DAVISVP2,2013-06-01 00:59:00,
2013-05-31 21:01:00,70.0,67.5,29.79,ESE,113,2.0,2.0,92,0.00,,,0.32,WUHU216DAVISVP2,2013-06-01 01:01:00,
2013-05-31 21:04:00,69.9,67.5,29.78,ESE,107,0.0,2.0,92,0.00,,,0.32,WUHU216DAVISVP2,2013-06-01 01:04:00,
2013-05-31 21:05:00,69.9,67.5,29.79,ESE,107,0.0,2.0,92,0.00,,,0.32,WUHU216DAVISVP2,2013-06-01 01:05:00,
2013-05-31 21:06:00,69.8,67.4,29.79,ESE,107,0.0,2.0,92,0.00,,,0.32,WUHU216DAVISVP2,2013-06-01 01:06:00,
2013-05-31 21:09:00,69.8,67.4,29.79,ESE,107,0.0,2.0,92,0.00,,,0.32,WUHU216DAVISVP2,2013-06-01 01:09:00,
2013-05-31 21:11:00,69.7,67.3,29.79,ESE,107,0.0,2.0,92,0.00,,,0.32,WUHU216DAVISVP2,2013-06-01 01:11:00,
2013-05-31 21:13:00,69.6,67.2,29.79,ESE,107,0.0,1.0,92,0.00,,,0.32,WUHU216DAVISVP2,2013-06-01 01:13:00,
2013-05-31 21:14:00,69.6,67.2,29.79,ESE,107,0.0,1.0,92,0.00,,,0.32,WUHU216DAVISVP2,2013-06-01 01:14:00,
2013-05-31 21:15:00,69.5,67.1,29.80,ESE,107,0.0,1.0,92,0.00,,,0.32,WUHU216DAVISVP2,2013-06-01 01:15:00,
2013-05-31 21:17:00,69.5,67.4,29.80,ESE,107,0.0,1.0,93,0.00,,,0.32,WUHU216DAVISVP2,2013-06-01 01:17:00,
2013-05-31 21:19:00,69.4,67.3,29.80,ESE,107,0.0,0.0,93,0.00,,,0.32,WUHU216DAVISVP2,2013-06-01 01:19:00,
2013-05-31 21:24:00,69.3,67.2,29.80,ESE,107,0.0,0.0,93,0.00,,,0.32,WUHU216DAVISVP2,2013-06-01 01:24:00,
2013-05-31 21:27:00,69.2,67.1,29.80,ESE,107,0.0,0.0,93,0.00,,,0.32,WUHU216DAVISVP2,2013-06-01 01:27:00,
2013-05-31 21:29:00,69.2,67.1,29.80,ESE,107,0.0,2.0,93,0.00,,,0.32,WUHU216DAVISVP2,2013-06-01 01:29:00,
2013-05-31 21:30:00,69.2,67.1,29.80,ESE,107,0.0,2.0,93,0.00,,,0.32,WUHU216DAVISVP2,2013-06-01 01:30:00,
2013-05-31 21:31:00,69.1,67.0,29.80,ESE,115,0.0,3.0,93,0.00,,,0.32,WUHU216DAVISVP2,2013-06-01 01:31:00,
2013-05-31 21:33:00,69.1,67.0,29.80,ESE,115,0.0,3.0,93,0.00,,,0.32,WUHU216DAVISVP2,2013-06-01 01:33:00,
2013-05-31 21:35:00,69.0,66.9,29.80,South,169,1.0,3.0,93,0.00,,,0.32,WUHU216DAVISVP2,2013-06-01 01:35:00,
2013-05-31 21:37:00,69.0,66.9,29.80,South,169,0.0,3.0,93,0.00,,,0.32,WUHU216DAVISVP2,2013-06-01 01:37:00,
2013-05-31 21:40:00,69.0,66.9,29.80,South,169,0.0,3.0,93,0.00,,,0.32,WUHU216DAVISVP2,2013-06-01 01:40:00,
2013-05-31 21:41:00,69.0,66.9,29.80,SSE,163,0.0,4.0,93,0.00,,,0.32,WUHU216DAVISVP2,2013-06-01 01:41:00,
2013-05-31 21:43:00,68.9,66.8,29.80,SSE,163,0.0,4.0,93,0.00,,,0.32,WUHU216DAVISVP2,2013-06-01 01:43:00,
2013-05-31 21:45:00,68.9,66.8,29.80,SSE,167,0.0,4.0,93,0.00,,,0.32,WUHU216DAVISVP2,2013-06-01 01:45:00,
2013-05-31 21:48:00,68.8,66.7,29.80,SSE,161,0.0,4.0,93,0.00,,,0.32,WUHU216DAVISVP2,2013-06-01 01:48:00,
2013-05-31 21:50:00,68.8,66.7,29.80,SSE,161,0.0,4.0,93,0.00,,,0.32,WUHU216DAVISVP2,2013-06-01 01:50:00,
2013-05-31 21:55:00,68.7,66.6,29.79,SSE,161,0.0,3.0,93,0.00,,,0.32,WUHU216DAVISVP2,2013-06-01 01:55:00,
2013-05-31 21:57:00,68.7,66.6,29.79,South,180,2.0,3.0,93,0.00,,,0.32,WUHU216DAVISVP2,2013-06-01 01:57:00,
2013-05-31 22:00:00,68.7,66.6,29.79,SSE,159,2.0,5.0,93,0.00,,,0.32,WUHU216DAVISVP2,2013-06-01 02:00:00,
2013-05-31 22:01:00,68.6,66.5,29.79,SSW,192,0.0,5.0,93,0.00,,,0.32,WUHU216DAVISVP2,2013-06-01 02:01:00,
2013-05-31 22:02:00,68.6,66.5,29.79,SE,146,0.0,5.0,93,0.00,,,0.32,WUHU216DAVISVP2,2013-06-01 02:02:00,
2013-05-31 22:05:00,68.6,66.5,29.79,ESE,117,0.0,5.0,93,0.00,,,0.32,WUHU216DAVISVP2,2013-06-01 02:05:00,
2013-05-31 22:09:00,68.6,66.5,29.79,South,178,0.0,4.0,93,0.00,,,0.32,WUHU216DAVISVP2,2013-06-01 02:09:00,
2013-05-31 22:11:00,68.6,66.5,29.80,South,178,0.0,4.0,93,0.00,,,0.32,WUHU216DAVISVP2,2013-06-01 02:11:00,
2013-05-31 22:14:00,68.6,66.5,29.80,South,186,0.0,4.0,93,0.00,,,0.32,WUHU216DAVISVP2,2013-06-01 02:14:00,
2013-05-31 22:16:00,68.6,66.5,29.80,South,187,0.0,4.0,93,0.00,,,0.32,WUHU216DAVISVP2,2013-06-01 02:16:00,
2013-05-31 22:17:00,68.6,66.5,29.80,South,187,0.0,4.0,93,0.00,,,0.32,WUHU216DAVISVP2,2013-06-01 02:17:00,
2013-05-31 22:20:00,68.6,66.8,29.80,South,187,0.0,2.0,94,0.00,,,0.32,WUHU216DAVISVP2,2013-06-01 02:20:00,
2013-05-31 22:21:00,68.6,66.8,29.80,South,187,0.0,2.0,94,0.00,,,0.32,WUHU216DAVISVP2,2013-06-01 02:21:00,
2013-05-31 22:22:00,68.7,66.9,29.80,South,187,0.0,2.0,94,0.00,,,0.32,WUHU216DAVISVP2,2013-06-01 02:22:00,
2013-05-31 22:24:00,68.7,66.9,29.80,South,188,0.0,2.0,94,0.00,,,0.32,WUHU216DAVISVP2,2013-06-01 02:24:00,
2013-05-31 22:26:00,68.7,66.9,29.80,South,188,0.0,2.0,94,0.00,,,0.32,WUHU216DAVISVP2,2013-06-01 02:26:00,
2013-05-31 22:29:00,68.7,66.9,29.81,South,188,0.0,2.0,94,0.00,,,0.32,WUHU216DAVISVP2,2013-06-01 02:29:00,
2013-05-31 22:31:00,68.8,67.0,29.81,South,188,0.0,2.0,94,0.00,,,0.32,WUHU216DAVISVP2,2013-06-01 02:31:00,
2013-05-31 22:32:00,68.8,67.0,29.82,SSW,201,0.0,2.0,94,0.00,,,0.32,WUHU216DAVISVP2,2013-06-01 02:32:00,
2013-05-31 22:34:00,68.8,67.0,29.82,SSW,208,0.0,3.0,94,0.00,,,0.32,WUHU216DAVISVP2,2013-06-01 02:34:00,
2013-05-31 22:36:00,68.9,67.1,29.82,SSW,208,0.0,3.0,94,0.00,,,0.32,WUHU216DAVISVP2,2013-06-01 02:36:00,
2013-05-31 22:39:00,68.9,67.1,29.82,SSW,213,0.0,3.0,94,0.00,,,0.32,WUHU216DAVISVP2,2013-06-01 02:39:00,
2013-05-31 22:41:00,68.9,67.1,29.82,SW,220,0.0,3.0,94,0.00,,,0.32,WUHU216DAVISVP2,2013-06-01 02:41:00,
2013-05-31 22:43:00,69.0,67.2,29.82,SW,220,0.0,3.0,94,0.00,,,0.32,WUHU216DAVISVP2,2013-06-01 02:43:00,
2013-05-31 22:46:00,69.0,67.2,29.82,SW,220,0.0,3.0,94,0.00,,,0.32,WUHU216DAVISVP2,2013-06-01 02:46:00,
2013-05-31 22:48:00,69.0,67.2,29.82,SW,220,0.0,2.0,94,0.00,,,0.32,WUHU216DAVISVP2,2013-06-01 02:48:00,
2013-05-31 22:50:00,69.0,67.2,29.82,SW,220,0.0,1.0,94,0.00,,,0.32,WUHU216DAVISVP2,2013-06-01 02:50:00,
2013-05-31 22:51:00,69.0,67.2,29.82,SW,220,0.0,0.0,94,0.00,,,0.32,WUHU216DAVISVP2,2013-06-01 02:51:00,
2013-05-31 22:52:00,69.0,67.2,29.82,SW,220,0.0,0.0,94,0.00,,,0.32,WUHU216DAVISVP2,2013-06-01 02:52:00,
2013-05-31 22:53:00,69.0,67.2,29.82,SW,220,0.0,0.0,94,0.00,,,0.32,WUHU216DAVISVP2,2013-06-01 02:53:00,
2013-05-31 22:55:00,69.0,67.2,29.82,SW,220,0.0,0.0,94,0.00,,,0.32,WUHU216DAVISVP2,2013-06-01 02:55:00,
2013-05-31 22:56:00,69.1,67.3,29.82,SW,220,0.0,0.0,94,0.00,,,0.32,WUHU216DAVISVP2,2013-06-01 02:56:00,
2013-05-31 22:57:00,69.1,67.3,29.82,SW,220,0.0,0.0,94,0.00,,,0.32,WUHU216DAVISVP2,2013-06-01 02:57:00,
2013-05-31 22:58:00,69.1,67.3,29.82,SW,220,0.0,0.0,94,0.00,,,0.32,WUHU216DAVISVP2,2013-06-01 02:58:00,
2013-05-31 23:00:00,69.0,67.2,29.82,SW,220,0.0,0.0,94,0.00,,,0.32,WUHU216DAVISVP2,2013-06-01 03:00:00,
2013-05-31 23:02:00,69.1,67.3,29.82,SW,220,0.0,0.0,94,0.00,,,0.32,WUHU216DAVISVP2,2013-06-01 03:02:00,
2013-05-31 23:04:00,69.1,67.3,29.82,WSW,242,2.0,2.0,94,0.00,,,0.32,WUHU216DAVISVP2,2013-06-01 03:04:00,
2013-05-31 23:07:00,69.1,67.3,29.83,West,278,0.0,5.0,94,0.00,,,0.32,WUHU216DAVISVP2,2013-06-01 03:07:00,
2013-05-31 23:09:00,69.2,67.4,29.83,WSW,249,0.0,5.0,94,0.00,,,0.32,WUHU216DAVISVP2,2013-06-01 03:09:00,
2013-05-31 23:11:00,69.1,67.3,29.83,SW,219,0.0,5.0,94,0.00,,,0.32,WUHU216DAVISVP2,2013-06-01 03:11:00,
2013-05-31 23:12:00,69.1,67.3,29.83,SW,219,0.0,5.0,94,0.00,,,0.32,WUHU216DAVISVP2,2013-06-01 03:12:00,
2013-05-31 23:14:00,69.2,67.4,29.83,SSW,208,1.0,5.0,94,0.00,,,0.32,WUHU216DAVISVP2,2013-06-01 03:14:00,
2013-05-31 23:16:00,69.2,67.4,29.83,SSE,155,1.0,4.0,94,0.00,,,0.32,WUHU216DAVISVP2,2013-06-01 03:16:00,
2013-05-31 23:17:00,69.2,67.4,29.83,SSE,155,1.0,4.0,94,0.00,,,0.32,WUHU216DAVISVP2,2013-06-01 03:17:00,
2013-05-31 23:19:00,69.2,67.4,29.83,SSW,194,1.0,4.0,94,0.00,,,0.32,WUHU216DAVISVP2,2013-06-01 03:19:00,
2013-05-31 23:21:00,69.3,67.5,29.83,SSE,164,0.0,4.0,94,0.00,,,0.32,WUHU216DAVISVP2,2013-06-01 03:21:00,
2013-05-31 23:22:00,69.3,67.5,29.83,SSE,164,0.0,4.0,94,0.00,,,0.32,WUHU216DAVISVP2,2013-06-01 03:22:00,
2013-05-31 23:24:00,69.3,67.5,29.82,SSW,194,1.0,4.0,94,0.00,,,0.32,WUHU216DAVISVP2,2013-06-01 03:24:00,
2013-05-31 23:25:00,69.3,67.5,29.81,SSW,194,3.0,6.0,94,0.00,,,0.32,WUHU216DAVISVP2,2013-06-01 03:25:00,
2013-05-31 23:28:00,69.4,67.6,29.82,South,179,1.0,6.0,94,0.00,,,0.32,WUHU216DAVISVP2,2013-06-01 03:28:00,
2013-05-31 23:30:00,69.4,67.6,29.82,SE,146,2.0,6.0,94,0.00,,,0.32,WUHU216DAVISVP2,2013-06-01 03:30:00,
2013-05-31 23:31:00,69.4,67.9,29.82,SW,223,0.0,6.0,95,0.00,,,0.32,WUHU216DAVISVP2,2013-06-01 03:31:00,
2013-05-31 23:33:00,69.4,67.9,29.82,SW,223,0.0,6.0,95,0.00,,,0.32,WUHU216DAVISVP2,2013-06-01 03:33:00,
2013-05-31 23:37:00,69.4,67.6,29.81,WSW,244,4.0,5.0,94,0.00,,,0.32,WUHU216DAVISVP2,2013-06-01 03:37:00,
2013-05-31 23:38:00,69.4,67.6,29.81,WSW,244,4.0,5.0,94,0.00,,,0.32,WUHU216DAVISVP2,2013-06-01 03:38:00,
2013-05-31 23:39:00,69.4,67.6,29.80,SE,142,1.0,6.0,94,0.00,,,0.32,WUHU216DAVISVP2,2013-06-01 03:39:00,
2013-05-31 23:41:00,69.4,67.6,29.81,South,191,0.0,6.0,94,0.00,,,0.32,WUHU216DAVISVP2,2013-06-01 03:41:00,
2013-05-31 23:43:00,69.4,67.6,29.81,South,171,5.0,6.0,94,0.00,,,0.32,WUHU216DAVISVP2,2013-06-01 03:43:00,
2013-05-31 23:46:00,69.5,67.7,29.81,SSE,157,0.0,6.0,94,0.00,,,0.32,WUHU216DAVISVP2,2013-06-01 03:46:00,
2013-05-31 23:47:00,69.5,67.7,29.81,SW,235,1.0,6.0,94,0.00,,,0.32,WUHU216DAVISVP2,2013-06-01 03:47:00,
2013-05-31 23:49:00,69.5,67.7,29.81,SW,235,1.0,6.0,94,0.00,,,0.32,WUHU216DAVISVP2,2013-06-01 03:49:00,
2013-05-31 23:52:00,69.5,67.7,29.81,South,170,5.0,7.0,94,0.00,,,0.32,WUHU216DAVISVP2,2013-06-01 03:52:00,
2013-05-31 23:54:00,69.6,67.8,29.80,South,175,0.0,7.0,94,0.00,,,0.32,WUHU216DAVISVP2,2013-06-01 03:54:00,
2013-05-31 23:56:00,69.6,67.8,29.80,SSW,196,0.0,7.0,94,0.00,,,0.32,WUHU216DAVISVP2,2013-06-01 03:56:00,
2013-05-31 23:59:00,69.6,67.8,29.80,WSW,252,0.0,6.0,94,0.00,,,0.32,WUHU216DAVISVP2,2013-06-01 03:59:00,